GFSFLT1_500_spd_000.txt.gz
Wind_Speed
21 23 27 30 32 34 37 37 36 38 41 41 41 44 47 48 49 50 49 50 50 50 50 50 52 53 53 54 54 54 55 53
23 26 30 33 34 37 40 40 40 43 45 46 48 50 52 52 51 52 51 52 53 54 54 56 57 58 59 59 61 62 61 62
28 31 34 36 37 39 41 42 44 46 49 50 51 53 54 52 52 53 55 56 57 58 60 62 63 66 67 66 67 67 68 65
32 34 36 37 38 41 43 44 47 50 52 53 55 54 54 55 57 58 60 62 64 65 66 67 68 69 70 71 71 71 73 72
36 36 37 39 41 44 44 47 50 51 52 53 53 54 56 59 61 62 65 67 68 69 72 74 74 74 74 74 74 75 76 74
36 37 39 41 44 46 47 48 47 49 51 54 55 57 60 64 66 67 69 71 74 76 77 79 79 79 78 76 76 78 78 78
37 39 42 45 45 45 45 46 48 50 52 53 57 62 65 69 70 71 74 76 79 81 81 81 81 82 82 83 82 80 78 79
38 40 42 43 42 43 46 49 52 52 55 60 63 65 70 74 74 75 78 79 81 81 82 82 84 85 85 83 85 87 83 83
37 38 39 41 45 48 51 52 53 55 60 64 68 71 72 74 76 77 77 80 82 84 85 87 86 87 88 89 93 93 93 90
34 39 42 47 50 51 52 54 58 61 65 68 68 70 73 75 77 79 81 82 83 84 85 85 88 92 93 96 89 86 78 72
42 45 48 50 51 53 55 58 62 63 65 68 71 74 75 77 80 81 82 82 85 87 88 90 94 96 93 81 68 59 53 51
44 46 48 50 53 56 60 63 66 69 71 73 74 76 79 81 82 83 82 83 88 90 92 93 96 84 68 54 46 46 40 48
46 47 51 55 57 61 65 67 68 70 73 74 78 81 82 82 82 80 81 89 91 95 94 83 70 59 45 44 44 43 46 50
49 52 54 59 62 67 70 71 73 74 75 81 85 86 82 85 83 85 86 89 94 89 74 61 50 46 45 46 47 48 50 51
55 58 62 67 70 71 71 72 76 70 72 85 87 84 84 83 85 87 91 94 85 70 60 52 51 50 49 48 50 51 51 51
58 63 68 71 71 72 72 73 73 69 81 93 89 85 85 84 87 87 87 75 62 55 55 55 52 51 49 49 49 49 49 49
65 70 75 76 76 75 75 75 74 80 93 91 87 85 86 87 86 80 69 61 55 56 54 53 54 54 52 53 52 52 52 51
73 76 77 76 71 70 77 80 83 86 87 84 84 84 83 82 71 63 56 54 55 55 56 58 60 61 58 58 56 56 55 54
75 77 76 76 76 76 81 83 83 84 81 81 82 81 76 67 56 52 53 53 56 59 61 62 61 59 57 56 54 53 53 53

GFSFLT1_500_spd_003.txt.gz
Wind_Speed
22 25 27 29 31 34 38 40 39 42 45 44 46 48 51 52 53 53 53 51 51 53 55 56 56 57 57 57 59 60 61 63
26 28 31 34 36 38 41 46 43 45 47 48 50 53 54 54 55 55 54 53 54 57 59 60 61 63 64 64 65 65 67 68
29 31 33 37 39 43 44 44 47 48 50 51 53 55 56 56 56 56 58 58 61 63 66 68 68 69 71 72 73 73 73 73
33 35 38 41 43 46 47 49 49 51 53 54 56 56 56 57 58 59 61 63 67 68 70 71 72 74 76 78 79 78 78 76
36 37 41 43 45 45 47 49 51 52 54 56 55 55 56 58 61 63 64 66 69 71 75 77 77 78 79 79 79 79 79 78
38 41 42 43 43 46 49 52 52 52 52 54 56 56 55 53 57 67 62 67 72 77 79 79 78 78 79 80 81 80 79 80
39 41 43 44 45 48 49 49 49 51 54 56 57 54 54 59 67 70 72 73 76 78 79 79 79 80 81 81 82 82 82 83
39 40 43 43 42 43 44 48 53 56 57 58 60 62 65 67 69 72 74 75 75 76 79 80 80 82 83 84 86 87 89 88
36 36 37 38 42 46 49 53 55 57 59 62 66 69 70 71 73 73 73 74 76 79 80 81 83 83 84 86 90 94 94 95
32 36 40 42 47 50 51 53 58 61 63 65 68 70 71 73 75 75 77 80 83 85 84 85 87 87 87 88 92 94 82 70
37 39 43 47 48 50 55 57 60 65 70 72 73 73 73 75 77 76 79 83 91 90 86 89 88 90 91 90 80 66 58 52
41 44 47 49 51 55 60 64 68 72 75 75 73 74 74 77 79 81 87 94 97 91 90 88 88 86 78 64 55 50 48 48
43 46 50 54 59 62 67 71 74 76 76 77 78 79 81 79 83 88 93 96 94 92 88 85 76 66 58 52 51 50 51 51
45 48 53 59 64 68 73 76 79 79 77 77 77 79 77 84 88 89 89 90 87 84 77 68 60 53 53 54 53 51 51 51
50 55 61 66 71 76 78 78 78 77 76 74 76 80 84 86 86 87 87 86 82 73 62 54 52 52 53 53 54 55 55 55
56 61 66 71 74 77 78 79 79 77 76 77 78 79 80 83 84 82 81 75 66 59 53 51 53 55 57 57 59 58 58 57
61 65 71 75 79 81 82 80 79 80 80 80 80 80 80 82 81 79 72 64 56 52 53 55 58 61 62 60 60 58 56 54
68 74 78 80 81 80 80 82 82 82 83 83 82 81 82 80 77 70 62 54 51 52 55 58 61 62 61 56 54 53 50 48
75 78 79 80 80 81 82 83 82 84 82 80 81 81 80 75 68 60 54 50 51 54 56 60 61 57 56 50 47 46 45 44

GFSFLT1_500_spd_009.txt.gz
Wind_Speed
26 29 28 28 28 32 39 40 39 41 41 45 48 48 48 52 52 53 52 51 52 56 56 55 56 56 59 61 63 60 62 63
31 32 32 33 33 38 41 43 44 46 48 49 42 52 53 56 57 54 55 57 58 56 56 57 60 61 62 64 67 70 72 75
31 32 36 35 38 40 42 44 45 47 50 46 51 51 56 57 55 57 59 59 61 63 65 65 66 67 68 71 73 75 75 78
30 33 34 37 40 43 45 46 48 49 49 49 51 54 52 54 56 57 59 61 63 66 69 72 75 76 76 76 77 78 78 77
30 33 38 40 42 43 43 45 47 47 49 47 51 52 54 55 57 60 62 64 68 72 75 77 79 80 82 82 80 79 79 79
36 34 35 36 36 38 40 41 40 42 45 46 49 53 55 57 60 64 68 72 77 80 80 81 83 84 83 83 82 82 82 81
42 41 37 34 34 35 38 40 43 44 46 48 49 51 57 62 66 70 74 78 80 81 83 85 84 83 84 84 83 82 83 84
41 43 42 34 32 33 36 38 41 47 50 53 57 62 67 72 76 79 82 84 85 85 85 85 84 84 84 84 85 86 86 87
45 45 44 42 37 35 38 40 41 44 49 55 60 66 71 76 78 82 83 83 83 82 82 83 85 84 84 85 86 88 89 89
33 34 34 34 35 37 39 43 47 53 59 64 70 76 81 83 84 85 83 81 81 81 82 81 82 83 84 84 84 84 83 78
33 35 35 37 40 42 45 50 57 63 68 73 77 80 84 86 84 81 81 81 81 82 81 81 81 81 81 81 78 72 65 57
33 34 37 40 43 47 52 59 64 69 73 77 81 85 86 85 81 81 82 81 81 80 77 77 78 76 73 68 63 55 47 45
34 38 42 45 49 53 58 64 69 73 76 80 83 86 86 84 81 81 83 83 78 73 73 70 69 67 62 57 49 44 45 48
38 41 44 47 52 57 63 68 73 77 81 84 88 88 87 88 88 93 91 88 79 77 72 73 67 59 52 43 41 43 47 50
42 45 48 54 59 65 69 73 77 82 86 88 89 89 91 93 93 89 82 64 74 71 69 69 53 44 38 40 44 46 50 53
46 51 56 62 65 69 73 77 81 85 87 90 92 90 91 89 84 80 50 66 72 68 71 51 40 38 41 44 46 50 53 52
51 56 61 64 69 73 77 82 85 88 89 91 91 91 89 84 73 53 55 68 66 58 63 46 42 42 44 47 50 52 51 49
56 60 64 68 73 78 83 87 89 89 91 90 92 90 84 74 67 49 59 66 54 61 46 45 45 44 46 51 52 50 48 46
61 64 69 74 79 82 85 86 88 89 90 91 90 85 73 65 57 51 52 51 52 38 40 44 43 46 50 51 49 45 43 41

GFSFLT1_500_spd_012.txt.gz
Wind_Speed
20 19 20 24 27 27 29 35 38 36 39 43 43 38 44 44 48 48 50 49 49 49 50 50 51 52 54 56 58 61 64 66
24 25 27 31 29 30 36 37 32 41 49 48 38 43 45 48 50 54 52 52 53 54 56 57 58 60 62 64 66 67 69 71
25 25 30 28 34 36 37 42 48 50 47 44 46 46 47 49 49 55 56 57 58 60 64 67 69 71 74 75 76 76 77 78
22 24 26 34 38 41 44 46 47 47 48 49 48 47 48 50 53 56 60 61 65 67 70 73 76 79 81 83 83 84 83 83
24 27 33 38 40 41 42 44 46 47 47 46 46 47 49 52 56 58 61 64 67 71 74 78 81 84 85 86 85 85 85 84
27 37 39 42 41 41 43 44 44 45 45 45 46 48 50 52 56 61 65 69 72 78 80 83 84 86 87 85 84 84 85 86
35 39 40 39 42 40 37 41 42 42 43 43 45 47 52 58 63 67 72 76 80 83 87 90 91 90 87 84 84 84 84 85
36 38 40 42 40 34 36 38 39 42 43 43 47 54 60 65 70 76 80 85 88 88 89 89 89 86 84 84 86 87 88 89
40 46 46 38 32 31 32 33 34 37 43 50 56 63 68 73 77 81 84 87 89 90 90 87 85 87 88 89 90 90 88 87
44 35 40 37 33 31 33 36 40 46 53 60 65 70 74 78 82 85 87 89 89 89 91 89 88 90 88 86 80 81 82 77
29 34 36 33 35 38 42 45 50 56 61 67 71 75 79 84 87 89 90 88 86 88 89 89 88 79 65 68 77 74 66 63
38 36 36 39 42 45 47 51 56 62 67 71 75 79 83 85 88 89 89 89 93 90 91 88 78 62 62 72 66 63 50 46
42 40 43 45 47 48 52 57 63 68 71 74 79 83 87 90 91 93 94 92 96 89 77 77 66 65 67 63 64 46 45 43
40 41 44 47 48 52 56 62 67 70 74 79 83 88 91 92 93 95 94 93 86 71 70 55 63 69 72 66 53 49 50 50
41 44 46 47 51 57 62 66 70 75 80 83 87 90 91 92 94 94 92 82 75 67 56 55 69 71 62 50 49 51 51 53
41 44 48 52 57 61 65 69 75 79 83 86 89 92 93 95 96 94 82 74 67 54 45 60 62 48 42 47 48 50 53 55
45 49 53 57 60 63 68 74 78 81 85 88 91 92 93 95 94 88 73 65 53 47 48 52 39 39 45 46 48 52 52 50
49 53 57 60 63 68 72 76 80 84 86 88 90 91 93 95 87 72 58 48 42 38 37 32 36 41 44 45 51 50 49 45
51 55 58 62 67 71 75 79 82 84 86 88 89 92 94 87 71 55 44 30 34 34 31 33 39 42 44 48 49 48 43 38

GFSFLT1_500_spd_015.txt.gz
Wind_Speed
13 14 16 21 23 19 21 28 27 33 37 33 44 46 39 35 44 47 49 48 47 47 47 48 49 51 53 54 56 58 60 61
19 18 20 21 20 21 23 32 40 44 47 49 42 44 38 44 54 48 46 49 49 50 52 55 58 61 63 65 65 66 67 69
23 23 24 23 20 26 36 41 47 49 50 47 44 41 51 51 49 49 49 50 52 55 60 64 67 70 73 75 77 77 77 79
23 21 20 27 32 34 38 43 46 48 49 49 51 52 50 49 50 50 50 54 59 64 68 71 74 77 79 81 83 84 85 85
24 28 31 33 37 40 44 46 47 50 52 51 50 50 50 50 52 54 57 61 65 69 73 76 80 82 82 85 88 89 88 89
28 32 37 39 42 44 45 48 51 49 46 45 45 46 48 50 53 56 61 65 69 72 77 81 85 88 91 91 92 90 89 89
34 36 39 42 41 42 48 48 44 42 42 44 43 44 48 52 57 62 68 71 75 81 85 88 90 92 92 90 90 91 91 92
33 39 36 42 48 47 40 41 41 39 39 42 45 48 53 59 65 70 74 79 84 87 89 91 92 92 91 92 94 95 93 91
35 43 48 49 44 38 38 34 36 40 43 46 50 55 61 68 71 75 79 84 88 91 92 94 95 97 98 99 99 94 90 82
41 38 37 33 39 34 34 37 41 44 46 51 56 63 67 71 75 80 85 88 91 95 97 98 99 100 100 98 88 82 77 70
31 35 37 38 40 40 43 45 48 50 54 58 63 67 71 76 80 84 87 90 94 97 97 97 99 98 88 80 79 73 64 71
34 36 38 41 43 46 49 50 52 55 59 63 67 71 76 80 85 88 92 96 98 98 99 101 95 83 72 76 70 56 65 72
36 40 41 43 46 49 50 53 56 60 64 66 70 76 79 84 88 90 94 96 97 99 101 95 82 72 67 63 60 57 62 54
37 40 42 44 47 49 53 57 60 62 65 69 74 78 81 85 90 93 95 98 98 99 97 81 69 64 56 52 59 61 51 50
37 40 42 45 47 51 56 59 61 64 68 72 76 81 86 90 92 95 98 98 100 97 79 64 55 45 42 41 38 46 48 50
39 41 44 47 50 54 57 59 62 67 71 76 80 86 89 90 92 95 94 98 94 77 59 47 39 35 35 40 45 48 48 52
44 45 47 49 52 55 58 62 66 69 75 80 85 88 89 91 94 94 96 91 72 56 44 35 32 33 38 43 47 47 50 50
48 48 49 51 54 57 61 65 69 74 80 83 86 86 88 90 92 93 88 68 53 42 39 38 36 35 40 45 48 47 53 48
50 50 51 52 55 60 64 68 73 79 84 85 85 87 88 90 91 87 72 55 44 37 37 38 37 37 42 46 46 48 48 45

GFSFLT1_500_spd_018.txt.gz
Wind_Speed
12 14 13 15 21 23 14 19 25 35 34 37 43 48 48 39 33 35 46 54 53 52 51 50 48 50 54 57 59 62 63 65
15 18 21 20 21 17 18 20 30 38 39 43 49 52 49 48 53 56 53 51 51 51 49 51 54 59 63 66 69 70 72 74
19 21 21 22 17 21 31 38 42 46 49 52 55 52 53 53 52 51 50 48 48 49 52 58 63 68 72 73 75 78 79 80
21 21 22 24 30 36 41 44 44 48 48 52 52 50 48 48 48 48 48 48 51 56 61 65 69 70 73 78 80 83 85 87
24 24 25 28 33 40 42 41 45 45 51 51 49 49 48 48 48 48 51 54 58 62 65 68 71 76 80 84 87 88 91 93
27 29 30 35 38 42 45 44 46 49 50 49 48 46 45 47 50 53 55 59 64 67 71 75 81 84 86 88 90 94 97 97
27 32 34 35 40 43 47 51 41 45 48 46 43 45 47 50 52 56 61 66 69 73 77 82 87 89 91 94 97 99 96 96
27 31 28 36 43 47 48 44 40 44 44 43 46 49 52 54 57 62 65 69 74 78 81 86 89 92 95 98 99 101 103 104
25 28 32 36 40 41 40 40 45 43 47 50 51 52 54 58 61 62 67 72 76 80 85 91 96 98 100 99 101 105 103 91
24 28 31 35 37 40 42 43 43 45 47 47 49 54 58 60 62 66 71 76 80 86 90 94 98 101 101 104 106 100 84 73
25 27 30 32 36 38 40 44 47 51 51 53 56 59 60 62 66 71 77 81 87 92 96 98 100 101 104 103 90 74 66 62
28 31 33 34 36 39 41 38 54 54 55 57 59 60 64 68 72 77 84 89 92 94 97 99 101 103 98 80 65 57 49 45
36 37 39 40 42 45 47 50 53 55 57 59 61 65 69 72 77 82 88 90 93 95 97 101 100 94 74 59 50 37 35 40
40 42 43 44 45 47 50 53 55 56 58 61 63 68 72 77 82 88 90 91 95 98 100 98 93 72 53 44 35 36 38 44
41 43 44 46 47 50 54 55 55 56 59 62 67 72 76 82 86 88 90 93 96 99 96 89 70 53 41 37 38 39 43 48
43 44 46 47 50 54 56 55 55 58 61 65 71 75 80 84 87 89 92 95 98 94 86 70 55 44 38 39 40 42 46 50
45 46 48 50 52 55 55 55 57 60 64 69 76 80 84 88 89 89 95 96 91 84 70 57 46 39 40 41 41 43 47 50
47 50 52 53 53 56 55 55 59 63 69 74 78 83 87 88 89 94 94 90 83 69 57 46 39 37 40 39 40 43 48 48
50 53 53 52 55 57 56 59 63 69 73 78 82 85 86 87 94 92 89 82 71 59 47 40 36 37 38 38 39 43 45 46

GFSFLT1_500_spd_021.txt.gz
Wind_Speed
9 9 10 13 17 17 21 21 25 28 26 30 39 37 41 44 43 39 47 47 48 47 48 48 47 46 47 50 53 57 60 64
13 16 17 20 20 21 19 21 27 41 45 49 45 46 45 49 53 51 47 45 45 45 45 46 47 50 55 60 64 65 67 69
17 18 20 21 21 19 22 32 36 39 41 45 49 50 51 51 49 46 44 44 44 45 49 51 55 59 62 63 64 67 70 74
19 21 22 24 26 26 31 36 41 43 44 46 48 50 49 47 49 47 47 48 51 53 55 58 61 63 64 66 69 73 79 83
18 21 22 23 25 31 37 39 39 42 47 51 52 49 48 49 48 49 51 53 54 56 59 61 62 64 69 72 78 82 86 90
21 23 25 27 32 35 37 40 40 50 50 47 45 48 48 47 49 51 53 55 57 60 61 63 67 72 76 81 86 90 92 96
22 24 27 30 32 35 37 39 41 42 44 45 45 48 48 50 53 54 55 57 59 61 64 69 73 78 84 89 92 94 97 101
20 22 24 26 27 30 33 35 38 40 43 46 50 51 51 52 53 56 57 58 62 66 70 75 80 86 90 93 94 98 103 108
15 18 21 24 26 29 32 36 39 42 46 48 47 50 54 56 56 57 59 63 67 71 75 80 86 91 93 95 100 105 106 106
16 20 23 26 29 32 34 37 39 42 48 50 53 57 60 58 58 60 63 67 72 76 81 86 90 92 96 101 103 107 101 83
19 23 26 29 31 34 38 41 42 44 47 51 55 56 57 58 59 62 66 72 77 83 87 91 94 96 100 104 102 92 75 59
25 28 30 32 33 36 41 44 47 48 50 54 57 58 58 59 61 66 71 77 82 87 91 93 97 100 102 99 85 67 52 46
29 31 34 37 39 43 46 49 50 51 52 56 57 57 58 60 65 70 77 81 87 89 91 95 100 101 94 79 63 49 43 41
34 36 38 40 42 45 49 50 50 51 54 58 58 58 59 64 70 75 80 84 86 88 93 99 100 94 77 62 50 42 39 39
39 39 40 43 45 48 50 50 50 52 57 58 58 59 63 69 73 78 82 84 87 94 98 100 90 74 62 50 43 39 39 39
43 42 44 46 48 51 51 51 52 55 58 58 59 62 67 71 76 80 83 86 92 97 99 87 72 62 52 43 39 37 39 39
46 46 47 50 53 53 52 52 54 56 59 58 60 65 69 74 78 82 86 90 94 97 87 72 62 53 43 39 37 38 38 38
49 50 50 53 54 53 53 55 56 58 58 59 63 68 73 77 80 85 89 93 94 86 74 64 55 44 38 36 35 34 35 38
52 52 53 54 55 55 57 57 58 59 59 63 67 72 76 80 84 87 91 93 83 76 65 56 47 38 35 34 33 33 36 38

GFSFLT1_500_spd_024.txt.gz
Wind_Speed
12 11 11 13 16 19 21 23 24 26 33 41 37 45 40 40 40 40 39 37 38 39 39 40 41 43 45 47 50 52 55 56
14 14 14 17 20 22 22 23 24 28 37 41 41 41 45 47 44 43 41 40 41 41 43 47 50 52 53 54 57 59 59 59
14 15 17 20 21 23 24 25 28 34 41 44 45 46 52 50 49 46 45 45 46 48 49 52 54 56 58 59 59 59 63 66
17 18 19 22 23 23 24 25 30 37 40 42 45 49 50 46 47 49 50 50 51 53 54 56 56 57 58 60 62 66 69 73
17 18 20 24 24 25 28 32 32 31 33 37 40 42 44 47 49 51 51 51 55 54 56 57 58 59 62 66 69 74 78 82
17 21 24 25 21 19 18 20 23 27 30 34 38 41 45 48 51 54 52 55 57 59 59 59 61 64 68 73 77 81 85 89
20 20 17 14 14 16 19 22 25 28 32 36 39 42 46 50 51 53 57 62 62 61 60 62 65 69 74 79 84 89 91 91
12 10 12 14 17 20 23 27 30 34 37 41 44 46 49 50 52 56 60 61 60 60 62 65 71 77 81 86 90 89 92 99
10 11 14 18 21 23 26 30 33 36 39 43 46 49 52 52 54 58 60 59 60 61 65 70 76 80 85 88 88 94 100 105
14 16 20 23 25 28 31 34 36 39 42 44 46 49 51 54 56 59 60 60 61 64 69 74 79 84 85 88 95 100 102 96
19 22 25 28 30 33 35 37 40 43 45 47 49 52 54 55 58 61 60 60 63 68 73 78 82 83 86 93 98 100 92 78
26 28 31 33 35 37 39 41 44 46 50 51 54 55 56 57 60 61 60 62 67 71 76 80 83 88 94 98 96 87 74 64
31 34 36 39 41 42 43 45 48 50 51 56 57 58 57 59 61 61 62 66 71 75 78 84 90 95 97 94 87 73 62 53
36 38 41 44 46 47 48 50 51 53 55 58 60 60 60 62 62 61 65 70 75 80 85 90 95 99 93 85 72 61 52 44
42 43 46 48 49 51 51 53 54 55 56 58 60 62 62 64 62 65 70 74 77 85 87 92 101 94 84 72 62 53 45 41
47 49 49 51 52 53 54 55 56 57 58 59 61 62 63 63 65 70 73 78 83 88 92 98 97 84 74 65 55 46 40 38
51 51 52 53 54 55 56 56 56 57 58 59 59 61 62 65 70 73 77 79 85 90 94 97 85 77 67 58 47 41 38 37
51 51 53 54 55 56 55 54 55 57 58 59 60 59 63 68 71 75 77 79 87 89 95 88 79 70 61 50 42 38 36 36
51 52 53 54 55 54 52 53 56 57 57 58 60 62 66 70 74 76 77 82 87 85 82 81 75 64 54 44 39 36 33 33

GFSFLT1_500_spd_027.txt.gz
Wind_Speed
8 9 10 12 14 17 21 23 26 27 28 29 37 36 40 41 41 43 41 39 39 38 37 37 40 44 48 49 50 51 52 54
12 13 14 16 18 21 24 26 28 29 31 34 37 38 35 35 40 41 41 42 43 44 47 46 47 49 51 51 51 53 53 55
15 14 16 19 20 23 27 29 29 28 29 33 34 34 36 38 40 41 42 46 48 50 46 47 50 54 55 56 57 54 56 58
18 19 20 23 26 27 26 27 27 29 27 27 28 30 34 37 40 42 44 46 48 50 51 53 59 62 59 57 58 58 61 66
20 22 24 27 28 26 22 19 19 21 23 26 29 33 36 40 44 47 49 49 51 53 56 59 61 60 59 60 61 64 69 73
24 25 27 26 21 14 14 16 18 22 25 29 32 35 39 43 47 50 52 54 55 56 57 59 59 59 60 62 65 70 75 80
26 27 24 16 12 13 16 19 22 25 29 32 35 38 41 45 49 52 54 57 58 60 60 63 64 63 63 67 72 76 80 83
23 18 14 12 14 18 20 23 27 31 34 37 40 43 46 49 52 54 55 57 59 60 62 65 64 65 68 71 76 80 84 88
13 14 15 17 20 24 27 30 32 36 39 42 45 48 50 53 54 55 58 60 61 62 64 65 64 66 69 74 80 83 88 94
15 17 20 23 28 31 34 36 38 41 44 46 49 51 53 56 57 60 61 63 63 63 66 65 66 69 74 79 84 86 92 94
21 24 27 30 34 36 39 42 44 46 48 50 52 53 55 52 60 61 62 63 63 65 66 66 70 73 77 82 82 86 90 93
27 30 32 36 39 42 43 46 48 50 53 54 56 57 53 56 59 61 63 63 63 66 66 69 72 75 75 81 86 91 90 87
32 35 38 41 44 47 46 49 51 53 55 56 57 58 59 60 60 62 63 63 65 66 69 73 75 77 80 89 94 88 89 79
39 41 43 45 48 51 51 52 53 55 56 57 57 57 58 59 61 62 63 64 66 69 72 76 81 85 86 95 92 90 80 68
45 47 48 50 51 53 54 53 55 56 56 57 57 56 57 60 60 62 63 65 68 71 74 79 82 84 90 94 94 88 74 62
49 51 53 54 54 54 55 55 56 57 57 56 55 57 59 59 59 62 64 67 70 73 77 81 83 86 90 92 91 85 68 55
52 53 53 54 55 53 54 55 56 56 55 54 56 57 59 59 61 63 66 69 73 77 81 84 86 86 87 87 79 74 60 49
53 53 53 54 54 53 54 55 54 54 54 55 55 56 58 62 64 66 70 74 78 81 80 81 81 86 81 78 74 63 51 44
52 51 51 52 53 53 54 51 52 53 55 55 55 57 61 65 70 75 80 82 83 77 75 77 82 82 73 73 64 53 45 40

GFSFLT1_500_spd_030.txt.gz
Wind_Speed
3 6 7 10 12 15 17 21 23 26 27 28 27 27 29 28 25 25 29 32 34 36 36 38 38 39 42 46 48 50 52 50
7 10 12 12 13 18 20 22 25 28 27 24 26 28 23 24 28 33 36 39 41 43 44 44 44 45 47 50 52 53 50 49
11 13 14 15 18 22 24 25 26 27 23 23 22 22 25 29 33 36 39 41 43 45 47 48 50 51 52 53 55 55 52 52
15 15 18 20 23 26 27 26 24 20 18 19 22 25 29 32 36 38 42 44 46 48 50 51 52 55 57 56 57 57 57 55
19 21 21 26 26 28 26 19 16 18 20 22 26 30 34 37 40 41 44 47 50 52 53 54 55 57 59 59 60 60 59 62
26 25 25 29 28 24 16 15 18 21 24 27 32 36 40 42 44 47 49 51 51 52 54 57 59 61 61 59 61 61 62 66
31 32 28 26 20 15 15 19 21 25 29 33 37 41 44 46 49 51 52 54 56 56 58 60 62 63 62 62 64 64 68 71
30 29 19 17 16 17 21 24 28 31 35 38 42 45 47 50 51 54 55 56 56 59 61 61 62 63 62 64 64 68 71 75
17 14 15 15 18 23 27 31 34 37 41 43 47 49 51 53 55 57 57 59 52 61 61 63 62 62 63 65 67 69 72 77
14 18 20 22 25 29 33 37 40 41 46 48 51 53 54 56 57 58 58 51 60 62 62 63 63 63 64 67 68 70 74 79
20 22 24 27 31 34 38 42 46 45 48 51 53 55 56 56 57 58 49 60 60 61 63 63 63 63 65 67 68 72 77 81
25 29 32 34 38 41 43 46 50 48 50 53 55 56 57 57 57 57 57 58 59 62 63 63 64 66 68 69 73 77 79 84
32 33 37 40 43 47 47 48 52 52 52 55 55 57 58 58 58 55 56 59 63 64 64 66 68 69 72 74 78 83 85 88
39 41 42 45 47 51 52 51 52 53 53 54 56 58 58 58 56 55 58 60 63 64 67 70 72 75 80 84 85 80 84 85
43 48 52 53 52 53 54 53 51 52 53 55 56 55 55 56 57 55 59 61 62 66 69 72 75 81 86 83 79 80 81 82
50 49 54 55 56 54 54 54 53 51 54 55 55 54 54 54 60 58 59 62 65 69 73 75 81 86 79 73 77 81 79 75
51 51 49 53 56 57 57 53 53 52 54 53 52 54 54 58 58 58 62 67 67 72 75 74 78 82 72 74 78 77 75 68
49 52 52 53 55 53 53 52 51 50 51 53 54 55 55 57 61 63 67 70 75 81 82 81 76 74 69 76 77 74 67 61
53 52 52 51 50 49 50 50 51 54 55 56 55 54 56 62 65 68 74 73 75 85 85 82 74 70 75 73 71 64 58 54

GFSFLT1_500_spd_033.txt.gz
Wind_Speed
2 4 3 5 10 9 11 15 16 18 17 17 18 16 17 13 13 17 21 23 26 29 31 34 36 38 41 43 44 46 48 48
2 5 3 4 10 14 15 18 18 18 19 16 13 13 15 17 21 24 28 30 34 35 37 38 40 43 45 46 46 48 50 50
8 9 8 9 12 18 22 22 20 20 17 12 15 17 21 25 27 31 35 38 41 43 44 45 47 48 48 49 49 52 54 53
13 14 17 19 21 20 21 19 21 14 15 18 19 22 26 30 33 37 41 44 46 47 48 49 50 50 50 51 52 55 56 55
12 18 20 24 26 24 21 17 13 16 18 22 24 28 32 35 38 42 46 48 50 51 51 53 55 56 54 56 57 58 57 56
16 15 21 25 26 24 18 12 14 19 22 27 29 33 37 41 44 46 48 50 51 53 55 57 57 55 55 61 59 59 58 54
18 18 20 23 21 15 14 14 19 25 29 32 36 39 43 46 49 51 53 55 56 56 57 58 57 53 61 62 62 61 58 59
20 17 15 14 13 15 17 20 24 29 33 37 41 45 48 51 53 55 57 58 57 58 57 55 50 61 61 61 62 61 62 63
12 8 7 12 15 18 22 25 28 32 37 42 46 49 51 52 54 55 56 56 57 56 55 52 56 60 62 62 62 63 65 67
10 11 13 17 21 25 29 32 34 37 39 43 48 51 52 54 55 56 55 55 56 55 55 53 59 61 63 62 64 67 69 70
16 20 20 22 26 31 35 38 40 42 43 45 48 52 53 54 55 55 55 55 55 57 55 54 57 61 62 63 67 70 70 73
21 24 27 29 32 35 39 44 47 46 45 46 48 53 53 53 54 55 55 55 50 59 58 59 60 62 64 67 69 72 73 76
28 31 33 34 36 39 43 48 49 48 46 46 48 52 53 53 54 55 55 51 54 58 58 60 60 65 69 74 73 77 81 82
35 36 38 39 42 43 42 44 49 51 49 49 51 54 54 54 55 54 54 57 57 58 60 61 65 71 77 80 79 82 87 78
40 42 44 45 44 46 47 44 47 48 49 49 53 54 53 54 55 55 57 58 55 58 62 65 70 74 78 82 85 85 77 70
45 48 48 41 47 49 46 47 47 50 49 52 56 52 53 56 56 57 57 58 61 61 66 69 71 76 82 89 77 65 69 77
46 48 49 47 46 45 42 48 48 47 49 52 52 54 56 57 56 58 61 66 67 75 81 82 83 85 87 69 65 74 79 80
45 47 49 51 52 50 45 43 42 46 48 52 56 56 57 56 57 60 64 69 72 75 84 88 81 85 71 66 72 78 79 67
50 49 47 46 46 45 41 41 44 47 52 55 55 56 57 59 62 66 66 71 73 86 87 81 75 68 65 74 79 71 64 59

GFSFLT1_500_spd_036.txt.gz
Wind_Speed
8 5 4 4 6 6 9 11 11 10 9 11 9 7 5 6 8 13 16 20 23 26 28 31 33 36 36 37 38 39 38 39
6 3 2 6 12 13 14 14 11 10 10 9 5 4 7 11 15 20 23 26 29 31 33 35 37 41 42 43 44 43 43 44
3 2 4 5 9 15 15 13 11 11 6 6 9 10 15 19 22 26 28 31 33 35 37 40 43 45 47 48 48 49 48 49
1 2 3 6 10 12 13 13 11 6 6 9 13 16 21 24 27 32 35 39 41 42 44 47 49 50 51 52 52 50 47 52
5 6 7 9 11 12 12 9 8 7 10 15 20 23 28 31 34 38 41 43 45 47 48 50 51 52 52 51 50 49 49 57
5 3 8 12 13 12 8 6 9 13 17 22 26 30 34 37 40 43 46 48 48 49 50 51 52 53 53 52 50 58 56 57
8 3 8 10 9 12 9 10 13 18 22 27 30 34 38 41 44 47 48 50 52 53 54 54 53 53 54 55 53 55 62 63
6 3 2 4 8 11 13 14 18 23 28 30 34 38 42 46 48 49 51 52 53 53 54 55 55 55 54 56 56 58 60 62
2 1 4 8 12 15 17 19 24 29 32 36 40 44 49 51 51 53 54 54 54 55 55 58 58 57 56 62 60 61 61 63
5 7 9 13 16 20 24 27 30 33 36 41 45 48 50 51 53 53 54 54 54 56 56 57 60 55 59 64 63 64 65 68
10 11 14 18 22 27 31 34 36 39 42 45 46 47 51 52 52 52 52 53 55 56 58 59 59 59 62 61 63 67 70 73
13 15 19 22 27 32 35 39 41 43 42 41 42 47 48 50 53 52 54 55 56 56 57 59 61 62 62 65 69 70 71 73
19 22 24 27 29 33 38 41 39 41 44 41 42 46 48 52 55 51 54 53 55 57 59 59 59 62 63 66 72 78 84 92
24 29 31 30 31 32 33 33 39 40 42 43 47 50 54 54 53 54 55 57 58 60 61 61 63 65 69 73 78 81 87 96
28 29 29 32 36 39 40 41 42 39 41 43 47 51 51 53 55 55 59 59 59 62 64 66 69 72 75 80 80 84 89 83
31 32 36 40 43 45 48 45 44 42 38 41 43 49 52 54 56 58 60 61 62 66 69 70 74 78 82 85 86 87 83 66
36 39 43 46 47 43 47 44 46 41 46 48 48 50 54 56 59 59 61 63 65 68 71 80 80 80 82 86 89 76 71 70
41 43 44 45 47 47 47 44 45 43 44 45 49 51 54 56 58 61 63 66 68 72 75 82 84 85 85 84 79 74 75 72
42 43 44 45 45 46 47 46 40 40 44 48 52 54 54 56 60 64 68 70 72 74 77 79 82 82 80 74 74 71 64 58

GFSFLT1_500_spd_039.txt.gz
Wind_Speed
10 11 11 9 9 6 3 2 2 6 4 5 5 3 4 5 6 9 13 17 20 25 29 32 35 38 40 41 41 42 43 44
4 4 4 5 5 3 1 2 3 4 2 2 3 3 5 6 10 14 19 23 25 29 33 36 38 41 42 43 42 44 44 44
6 3 3 0 2 2 1 3 4 4 4 2 3 4 8 12 15 20 24 27 30 34 37 40 43 44 44 45 45 46 47 47
9 6 3 3 5 5 4 3 3 5 4 6 6 10 15 18 21 25 29 32 35 39 42 44 44 46 47 48 48 48 48 50
8 7 6 5 7 8 6 7 4 5 6 9 13 17 21 24 27 31 34 37 42 45 45 46 46 47 47 45 48 48 49 49
7 6 7 7 12 11 7 7 6 7 11 15 20 23 28 31 33 37 40 44 47 47 46 46 47 49 50 49 53 54 55 54
13 12 14 13 13 10 6 8 8 11 15 20 25 28 34 35 39 43 45 46 46 46 46 47 49 51 49 52 55 58 57 56
11 11 12 11 10 9 9 9 13 16 20 25 30 34 37 39 47 46 48 49 49 45 47 50 52 54 54 57 57 58 60 61
5 6 8 10 12 11 10 13 18 22 27 31 34 39 43 43 43 47 48 51 47 47 49 49 53 56 57 58 61 61 64 67
5 7 9 10 15 12 16 20 24 28 32 36 41 44 42 39 42 45 51 50 49 47 48 56 56 58 60 63 64 64 67 69
9 10 11 14 17 20 23 26 29 33 38 41 41 35 44 39 45 49 51 50 50 50 54 56 58 60 62 63 64 67 70 73
13 15 16 17 20 25 28 31 35 39 40 39 41 40 45 48 47 53 54 54 52 52 57 58 62 62 64 65 67 71 74 77
18 19 19 22 26 30 32 34 36 38 41 42 44 43 41 45 54 57 54 50 52 56 60 60 65 66 67 69 73 74 78 83
23 22 24 28 32 34 33 33 34 39 37 36 38 41 45 48 53 51 50 55 56 61 61 63 66 68 71 74 78 82 85 88
21 25 29 30 32 33 34 35 39 33 35 38 43 40 47 53 54 53 56 56 59 62 62 66 69 71 77 81 82 85 89 92
26 26 26 29 32 33 33 33 36 39 40 37 47 45 47 53 53 55 56 60 60 60 63 66 72 75 82 83 86 89 88 87
29 30 31 34 36 39 42 44 44 44 44 48 51 46 51 53 54 57 60 60 62 64 65 69 75 78 88 84 84 85 83 79
31 33 35 38 41 44 47 46 46 47 47 50 50 48 52 57 59 57 56 59 62 67 69 69 80 79 80 82 82 79 75 68
33 36 39 42 45 47 46 46 48 48 50 51 50 53 54 55 56 56 59 63 64 65 73 73 75 77 78 79 78 73 69 65

GFSFLT1_500_spd_042.txt.gz
Wind_Speed
10 11 11 10 9 8 7 6 8 7 6 7 9 8 8 7 7 6 8 13 16 20 23 27 32 36 39 42 44 45 45 45
7 7 7 8 8 6 5 3 4 6 6 5 6 7 8 8 9 11 15 17 21 24 28 32 37 40 43 45 46 47 48 48
10 9 9 9 7 5 5 6 5 7 7 8 8 8 8 11 14 17 20 23 25 29 33 37 40 43 44 44 45 44 45 45
9 10 9 9 7 6 7 8 10 11 11 12 11 11 13 15 18 22 26 28 30 34 37 40 42 43 43 44 43 42 46 45
9 11 11 11 8 6 7 10 12 13 15 15 13 13 17 20 22 27 30 34 32 39 41 40 42 41 42 43 42 45 46 49
14 14 12 11 13 11 11 12 13 14 17 16 14 17 21 23 26 31 38 34 38 46 41 42 40 41 42 43 45 50 51 52
18 18 17 17 18 16 13 12 13 13 11 13 17 21 24 27 30 33 37 38 47 44 43 46 45 46 47 46 49 51 57 57
24 27 24 20 19 15 12 15 9 13 15 19 21 25 28 32 35 36 37 43 48 45 47 49 49 48 44 47 58 56 59 60
21 25 22 20 19 15 14 15 10 16 19 23 26 30 33 35 35 36 39 43 46 48 48 52 53 45 51 52 57 58 60 64
11 8 8 11 12 12 12 11 16 21 24 28 32 34 37 32 32 38 41 44 48 48 52 57 45 54 56 58 62 63 68 71
10 10 12 12 13 15 16 18 21 25 29 34 36 35 37 35 39 39 45 46 49 55 59 59 54 58 61 63 65 66 68 74
14 15 15 15 18 20 23 24 27 29 33 36 38 38 39 36 37 40 44 53 57 61 62 60 58 63 65 67 67 68 72 76
20 19 20 22 24 27 29 29 31 34 37 38 38 39 35 36 40 48 54 57 62 63 59 57 67 66 69 70 72 73 76 79
23 24 26 28 29 31 34 35 37 37 38 36 38 37 39 47 48 53 55 57 60 62 60 64 65 66 68 69 71 76 81 81
26 26 28 30 32 35 33 32 33 36 37 38 39 40 45 44 50 56 60 59 62 64 63 62 63 67 67 70 77 80 79 85
24 26 29 33 33 33 32 33 34 34 37 37 40 42 47 49 51 55 57 59 60 63 67 63 59 65 71 72 75 79 83 83
27 29 31 33 32 30 33 36 38 41 42 42 43 46 48 51 54 55 55 56 63 58 61 64 64 68 73 74 77 78 80 80
30 30 32 32 31 33 36 39 42 44 46 46 47 48 50 53 55 57 55 56 55 55 62 62 74 75 74 74 78 79 78 79
31 31 30 31 34 36 40 43 45 47 47 48 48 50 53 55 56 56 55 52 59 59 66 75 76 75 74 76 78 78 79 78

GFSFLT1_500_spd_045.txt.gz
Wind_Speed
11 11 10 12 13 11 9 8 7 7 10 11 13 14 14 15 14 12 11 11 13 15 18 23 27 29 33 36 38 40 42 43
10 10 11 11 11 11 11 10 9 9 8 8 11 13 13 13 12 12 13 13 16 20 24 28 30 32 35 37 40 43 44 46
9 11 13 14 12 9 9 9 8 9 8 9 9 10 11 13 14 13 14 18 20 25 29 31 31 35 37 40 43 44 45 45
10 11 13 13 11 10 9 10 10 10 11 12 13 14 14 14 14 17 20 22 25 29 33 34 36 38 40 43 44 47 47 46
7 10 12 11 10 9 9 9 11 12 14 15 17 15 14 16 20 22 26 27 30 33 35 35 39 41 41 45 47 48 47 47
12 13 15 15 15 13 12 13 15 16 17 17 17 16 18 22 23 25 26 31 36 36 40 36 41 43 45 46 46 52 46 49
19 20 20 20 19 20 17 16 19 16 15 20 14 20 22 24 25 27 31 33 38 40 39 41 46 46 49 53 49 52 45 54
22 24 24 26 22 23 22 19 20 18 13 14 18 22 24 25 29 31 33 35 37 38 42 48 49 51 48 48 60 49 57 61
26 27 29 31 29 24 20 19 20 23 18 17 22 25 27 29 30 30 32 34 36 40 46 53 54 48 54 58 61 62 59 63
23 24 23 24 24 18 17 16 13 13 20 23 25 27 29 30 30 32 32 32 38 38 47 49 52 59 60 63 65 55 64 66
14 14 15 15 16 16 15 17 18 21 23 27 28 29 32 32 33 35 31 34 40 41 48 51 58 62 66 68 56 68 69 71
18 18 17 17 17 19 20 21 24 26 30 31 33 35 35 33 33 35 33 38 47 52 53 55 62 62 64 62 66 67 71 73
19 20 21 21 21 22 24 27 29 31 33 36 34 36 37 38 39 39 41 44 47 47 52 61 66 67 64 66 69 66 73 70
22 24 26 27 27 29 30 31 31 32 33 33 35 36 38 40 38 37 41 47 51 54 56 58 47 67 64 69 66 70 70 73
27 30 32 33 32 32 32 33 32 33 34 34 35 37 35 38 39 42 47 50 52 55 56 58 61 63 66 67 69 65 73 77
25 27 29 30 30 32 32 33 33 32 33 34 35 35 37 39 42 45 48 50 53 55 57 59 61 61 61 66 67 73 76 77
28 29 29 28 30 31 32 32 32 33 34 36 39 40 42 44 46 48 50 52 55 58 58 58 57 56 69 70 73 78 79 90
27 29 29 29 30 32 32 33 33 34 36 39 41 43 45 47 49 51 53 54 56 57 58 58 58 60 63 70 75 79 84 83
27 28 29 29 31 31 32 33 35 37 39 42 44 46 48 49 51 53 54 56 57 57 58 58 61 67 71 75 77 78 78 79

GFSFLT1_500_spd_048.txt.gz
Wind_Speed
7 7 6 8 9 10 9 10 10 9 7 7 9 10 12 12 13 13 14 13 11 10 13 16 20 22 25 30 33 37 39 41
8 7 8 8 8 9 8 8 8 8 8 7 10 10 11 12 13 14 13 12 12 14 18 21 23 27 30 33 36 39 41 43
9 10 11 11 10 8 7 6 5 5 5 7 7 9 10 12 13 12 12 12 17 21 22 25 29 31 34 36 38 40 42 43
7 8 10 10 9 8 8 7 7 7 8 9 8 9 10 10 11 13 16 19 23 26 29 32 33 35 34 35 38 42 43 48
8 9 10 10 10 9 9 9 9 10 11 14 12 14 14 15 15 17 21 25 27 30 36 38 38 37 37 35 40 43 46 46
11 12 14 13 13 13 12 11 12 13 14 16 17 19 19 17 18 22 25 27 29 32 36 39 38 40 40 43 48 52 51 51
16 19 19 15 18 18 19 17 16 18 19 18 18 19 20 20 20 24 28 30 33 34 36 39 41 41 44 48 52 53 52 57
19 22 24 22 22 23 22 18 21 24 23 19 19 20 20 19 23 26 30 33 32 34 37 39 42 43 48 48 51 52 56 59
20 23 27 29 26 23 24 23 25 26 24 24 24 23 21 23 26 29 30 32 34 36 38 38 41 47 51 54 56 55 62 63
16 23 27 28 29 28 26 26 24 20 19 22 18 23 27 29 29 31 34 35 36 35 36 38 43 50 53 55 59 63 62 72
17 19 18 20 19 17 16 19 20 19 21 23 24 27 30 31 34 35 34 34 32 36 37 37 46 50 55 59 61 66 59 54
17 19 19 19 18 19 18 21 23 24 25 28 31 33 34 36 34 36 37 36 38 40 40 48 49 58 60 59 53 61 60 66
21 21 21 21 21 20 21 23 25 26 30 33 34 35 36 36 38 38 38 37 38 40 44 50 53 59 58 59 56 56 64 76
22 23 25 26 26 27 28 28 29 32 35 35 36 38 39 39 39 39 35 39 44 46 49 51 54 55 58 60 62 64 66 67
22 24 28 31 32 33 33 33 34 34 36 37 38 38 37 39 39 38 40 42 43 47 49 52 55 58 60 63 64 65 67 66
24 25 29 32 33 34 33 34 35 35 36 37 37 37 37 37 37 39 40 43 45 48 50 55 56 57 61 63 64 64 61 72
25 25 29 31 31 30 30 32 33 34 34 34 35 36 37 38 40 43 45 47 49 52 54 57 58 60 61 63 64 65 67 71
27 26 27 29 30 30 31 31 32 33 33 34 35 37 39 41 43 45 48 50 53 54 57 59 60 61 62 63 65 67 70 74
29 27 28 29 30 31 31 31 32 32 33 35 37 39 41 43 46 49 51 53 54 57 58 59 61 63 63 65 67 70 73 75

GFSFLT1_500_spd_051.txt.gz
Wind_Speed
2 3 4 4 6 5 9 11 12 12 11 8 8 8 9 10 12 12 11 11 10 10 10 11 14 17 21 24 26 29 30 32
3 1 3 3 3 3 5 5 5 4 4 5 6 7 9 11 11 12 12 10 9 9 12 16 18 22 25 27 28 33 32 32
4 5 5 6 6 5 5 4 3 2 2 2 4 6 7 11 12 12 12 11 12 14 16 20 24 26 29 30 33 36 33 34
5 5 6 7 9 9 8 7 7 6 5 4 6 7 9 11 10 10 11 11 13 17 21 26 30 33 35 37 39 39 36 39
8 7 7 9 10 10 10 9 10 10 9 9 9 9 11 11 10 11 13 15 18 23 26 30 33 34 37 38 40 37 39 43
11 11 11 11 11 13 12 11 11 11 12 14 15 14 16 16 15 16 17 18 21 26 29 32 34 37 38 40 40 43 43 50
14 14 15 13 17 15 16 16 16 16 17 18 19 18 17 20 21 20 20 21 26 29 32 33 34 37 38 41 41 43 47 52
18 20 22 22 21 21 20 18 17 16 20 23 20 17 21 22 25 22 20 24 29 32 34 34 36 38 39 41 43 47 50 54
22 22 22 22 22 21 20 21 19 24 33 16 24 14 20 26 22 17 22 29 31 34 35 36 37 33 39 41 44 46 49 56
22 19 17 20 22 23 23 20 19 20 28 19 19 15 18 20 24 27 30 35 35 36 35 36 37 39 41 41 43 52 59 62
24 21 19 19 21 20 18 17 17 17 19 21 20 21 24 29 32 33 36 36 38 39 39 39 40 41 40 45 52 58 61 61
26 24 20 21 22 21 18 19 19 19 21 24 24 26 29 33 35 36 38 38 39 41 42 39 41 44 48 52 54 56 58 65
26 26 26 22 21 22 22 22 23 24 25 26 29 32 34 36 37 39 40 40 42 42 41 41 43 45 54 45 49 57 72 68
26 27 27 23 26 28 27 26 27 28 30 33 36 37 38 37 39 41 41 41 42 43 42 43 44 48 53 54 56 59 66 67
24 26 28 30 32 33 34 35 34 31 34 37 39 40 39 39 41 41 42 43 43 43 44 47 48 52 53 57 60 61 62 65
24 25 27 30 33 36 38 37 39 38 38 39 39 39 39 40 40 41 42 42 43 45 47 50 53 54 57 59 62 64 65 67
27 28 28 29 32 36 36 35 34 33 36 37 38 38 39 39 39 40 41 43 45 48 51 54 56 58 60 62 64 65 67 67
30 31 31 32 31 32 33 33 33 33 34 34 36 36 36 37 39 41 43 46 49 52 55 57 59 61 62 64 66 66 65 63
36 37 35 34 34 33 33 33 32 33 34 35 35 36 37 39 41 44 47 50 53 55 57 59 62 63 65 65 65 64 63 64

GFSFLT1_500_spd_054.txt.gz
Wind_Speed
5 10 10 11 13 15 18 17 17 19 19 19 17 17 15 13 11 12 11 10 10 9 10 11 12 13 13 16 19 22 25 27
5 6 9 10 11 12 12 11 11 9 9 10 11 10 7 6 6 7 7 8 8 9 10 13 12 14 15 20 25 26 29 29
2 3 5 8 12 11 11 11 11 9 8 7 6 2 4 6 8 9 11 10 10 11 11 13 13 16 21 25 30 33 35 35
3 3 3 4 4 6 7 9 9 8 7 7 7 6 3 4 5 8 9 9 10 11 13 14 18 24 26 29 31 34 35 35
5 5 5 6 6 7 8 8 9 8 8 8 7 5 4 5 6 7 9 11 11 13 16 19 23 27 29 32 34 36 36 36
4 5 5 8 10 10 11 13 13 12 11 10 9 9 8 8 12 13 14 14 15 17 20 23 27 29 33 33 35 39 39 42
9 7 5 7 10 12 13 12 14 14 14 16 15 17 13 10 11 15 17 16 18 21 24 26 29 31 33 34 38 42 41 40
13 12 13 16 12 13 12 11 12 14 15 17 21 18 15 14 13 14 21 19 18 23 28 30 31 33 33 35 32 37 38 40
17 17 14 11 13 13 12 12 15 15 17 18 21 14 17 23 4 5 12 13 20 25 31 32 33 33 34 34 38 40 38 44
21 19 20 19 16 15 13 14 15 19 16 16 14 16 19 5 14 16 19 22 26 29 30 33 34 33 38 39 39 41 42 44
23 26 24 23 24 19 17 15 17 18 15 14 15 18 16 16 20 22 24 28 31 31 33 34 37 38 40 40 42 45 50 48
22 23 27 27 27 28 23 19 21 24 22 26 25 24 23 24 25 26 29 30 33 36 36 36 39 41 42 42 42 44 51 45
19 22 23 28 27 31 26 22 25 28 30 32 26 28 29 30 31 32 34 36 36 39 39 40 41 41 43 44 47 50 52 57
17 21 22 26 29 31 30 25 28 30 32 31 28 28 33 33 36 37 38 38 39 41 41 42 43 44 45 47 50 53 56 58
21 21 23 25 27 29 32 32 34 36 35 35 36 36 36 39 41 39 39 40 41 41 42 44 44 46 48 52 54 57 58 61
24 26 25 26 27 28 31 34 37 39 38 36 40 40 41 40 38 39 40 42 42 43 43 44 45 49 52 55 57 59 61 63
31 31 29 27 27 29 29 30 33 36 37 39 38 37 37 38 38 40 41 41 41 41 43 46 49 52 54 56 58 61 63 64
28 33 36 31 30 31 29 30 32 32 31 33 34 36 36 37 38 38 38 39 41 43 46 50 52 54 56 58 61 63 64 65
29 33 37 38 35 35 35 35 33 33 33 34 33 34 35 36 36 37 39 41 44 47 50 52 53 56 58 62 63 64 64 65

GFSFLT1_500_spd_057.txt.gz
Wind_Speed
7 8 12 15 17 18 21 21 18 6 10 7 10 14 16 17 20 23 28 23 18 15 11 11 14 14 15 13 12 14 17 21
5 4 7 11 13 14 15 17 16 18 16 17 18 16 19 19 19 17 15 11 10 10 11 12 14 13 12 13 15 19 23 25
5 3 4 6 9 12 13 15 14 14 13 12 10 9 11 11 12 11 10 9 9 9 12 14 14 12 13 16 21 23 26 28
4 3 2 4 6 8 11 13 13 12 12 11 9 8 8 7 7 7 8 8 11 13 14 12 11 13 15 19 24 27 30 31
3 3 4 6 7 8 8 8 7 6 6 7 8 7 5 4 6 7 10 12 13 14 13 12 14 17 19 23 25 29 30 31
3 1 4 5 6 7 7 6 7 5 5 5 5 5 5 3 5 8 11 11 13 12 13 14 16 19 24 24 26 29 30 33
6 3 3 2 7 7 5 6 6 5 5 5 6 8 8 8 9 12 15 15 15 16 16 19 22 23 24 27 28 30 30 29
6 9 7 9 7 6 7 7 9 8 9 9 9 11 8 9 11 12 13 16 20 23 23 22 21 25 29 32 29 26 29 38
6 6 9 10 10 8 11 13 13 13 11 11 12 13 10 11 13 13 15 15 13 15 17 22 23 26 29 26 24 29 33 36
16 13 10 10 12 14 14 17 17 14 15 13 13 13 11 9 9 8 12 13 16 18 20 21 25 29 29 31 33 34 35 36
20 21 15 17 14 16 18 19 18 18 18 16 16 14 17 17 14 15 18 17 20 24 21 24 28 31 32 33 35 36 37 38
19 21 23 16 14 16 15 18 24 23 24 23 27 28 27 28 20 17 21 24 24 26 27 30 31 32 34 35 36 38 40 42
18 21 22 23 17 13 15 21 24 28 26 30 28 39 30 36 14 22 21 27 29 31 32 32 34 36 37 38 40 41 43 46
21 21 20 22 21 19 23 24 25 26 35 18 25 28 26 28 19 27 29 33 35 32 33 35 37 38 39 41 43 44 47 49
24 20 18 19 23 24 27 26 25 23 28 27 28 30 34 33 32 34 38 35 34 35 36 37 39 40 41 42 44 47 49 52
19 12 16 18 23 26 27 30 30 30 29 32 30 32 33 38 39 39 37 36 36 36 39 40 40 42 43 45 47 50 52 55
30 36 30 25 27 28 27 30 32 31 32 32 34 35 34 35 36 36 36 37 37 39 41 41 42 43 45 49 51 54 56 58
26 25 31 23 18 20 27 29 33 34 34 34 33 35 34 34 35 36 37 38 39 40 40 42 44 46 50 53 56 58 59 62
22 23 31 30 27 26 28 31 33 34 36 36 36 35 33 33 35 37 37 38 39 40 42 44 48 52 55 58 60 61 63 65

GFSFLT1_500_spd_060.txt.gz
Wind_Speed
5 6 9 10 14 14 16 15 10 17 19 23 24 20 21 23 24 22 23 26 23 26 28 24 19 15 14 17 18 17 16 15
3 2 4 8 10 12 12 18 16 18 10 7 13 19 24 25 26 28 25 24 30 32 24 16 17 18 17 18 19 18 17 18
2 3 1 4 7 11 12 12 13 11 14 14 16 14 14 14 17 21 24 23 20 18 18 19 19 20 19 18 16 18 20 21
2 3 2 2 5 7 10 11 11 13 12 11 11 12 12 10 8 10 13 14 15 17 17 19 19 19 18 17 18 19 22 24
3 3 1 2 3 4 6 7 7 9 11 12 12 12 9 8 10 12 13 16 20 19 19 19 19 18 18 18 20 21 24 27
2 3 5 3 1 2 0 2 3 4 6 6 6 5 6 5 5 8 12 15 19 17 18 17 20 21 21 20 22 25 27 28
1 0 5 5 5 4 3 2 3 4 2 3 4 3 1 4 5 9 12 13 14 17 19 21 23 23 23 22 23 26 29 32
4 2 6 11 10 7 5 5 7 7 7 7 7 7 5 6 9 11 13 16 17 20 22 24 26 27 25 25 23 27 28 28
7 5 6 9 13 10 8 8 10 11 10 12 12 12 8 9 11 17 17 21 19 19 23 26 34 23 23 27 24 23 26 28
9 7 8 10 10 14 12 10 11 13 13 15 13 13 15 18 20 18 17 20 19 17 16 20 21 21 25 27 21 28 30 33
10 11 11 13 12 14 17 15 15 16 17 16 17 19 19 21 24 23 19 21 18 16 16 24 24 24 26 25 28 31 33 34
15 12 11 13 18 16 17 18 19 19 21 21 24 27 29 28 29 33 28 26 22 18 20 22 26 27 29 30 32 34 34 35
18 19 16 14 16 17 16 18 21 22 25 28 34 29 33 29 44 28 36 28 17 17 22 27 29 30 31 32 34 36 37 38
21 26 27 21 16 17 17 18 20 28 28 35 36 32 25 24 19 23 13 21 24 27 28 29 30 31 32 34 36 38 40 42
16 20 24 25 19 19 18 19 24 27 30 29 23 24 22 25 24 24 24 30 30 30 29 30 31 33 36 38 39 40 42 44
16 13 23 22 20 22 25 27 27 29 29 28 25 24 29 29 27 29 32 34 31 31 30 33 35 37 39 40 41 43 45 48
30 26 27 23 30 35 33 32 31 29 29 29 27 26 28 28 29 30 33 34 33 33 35 36 38 40 41 42 43 45 49 54
33 26 23 34 35 26 23 27 31 31 31 33 33 33 32 32 34 35 35 36 35 35 37 39 41 41 42 43 46 50 54 59
34 35 29 22 20 18 18 22 28 31 32 33 36 36 37 36 36 37 37 38 38 38 39 40 40 42 44 47 51 55 59 62

GFSFLT1_500_spd_063.txt.gz
Wind_Speed
0 1 2 3 5 8 8 10 21 25 27 34 33 30 27 24 28 29 23 20 22 25 26 26 24 29 28 26 22 24 20 21
4 1 2 3 4 5 7 5 10 19 23 24 31 34 29 26 28 27 24 21 24 30 29 22 28 26 21 19 19 19 20 20
8 4 2 3 2 2 4 8 10 12 11 7 17 26 29 29 28 28 29 29 28 30 25 28 26 23 23 20 21 21 21 19
7 7 4 4 4 1 4 6 8 7 9 11 14 13 7 12 15 16 15 15 19 24 27 22 21 23 24 23 22 22 21 21
6 8 6 6 5 5 3 5 7 7 8 8 8 7 10 14 14 15 16 17 19 23 24 23 24 24 25 24 22 23 23 24
5 8 9 6 3 4 4 4 5 6 7 10 10 10 10 11 12 12 13 15 19 21 23 21 21 24 25 24 23 24 25 29
6 6 6 5 2 2 5 5 5 5 7 7 8 8 9 11 13 14 14 15 16 21 23 20 24 26 25 26 26 27 29 30
8 7 7 9 9 7 5 5 4 4 5 6 6 8 7 7 9 11 13 16 19 22 23 24 27 28 26 28 30 33 34 32
8 8 7 5 7 7 10 8 6 4 5 9 10 9 10 7 8 12 14 16 21 22 24 26 27 28 28 32 33 35 42 29
9 11 10 10 10 9 11 12 12 8 9 9 10 12 13 15 16 16 14 19 23 24 25 26 27 28 23 23 34 34 32 26
13 13 14 13 12 14 15 15 16 16 15 14 15 18 20 22 22 23 24 23 27 34 30 29 27 25 23 31 29 28 31 29
19 16 14 14 15 14 16 16 17 19 21 22 23 23 26 29 29 29 28 29 31 37 38 29 27 27 30 30 32 30 33 36
20 19 13 15 19 18 16 18 20 22 24 27 30 34 40 36 35 33 36 37 35 33 43 30 24 26 27 30 32 35 36 38
19 19 18 15 17 19 21 20 20 25 27 29 35 38 41 33 28 30 20 17 25 25 17 27 21 25 28 30 36 35 37 41
26 23 23 18 19 18 21 23 23 25 25 25 28 31 32 22 18 17 19 21 21 24 25 24 28 29 30 33 36 38 41 41
29 28 26 20 18 19 24 24 24 27 32 30 29 29 28 24 24 25 21 23 25 27 26 27 29 32 34 37 38 40 42 43
35 30 28 26 25 25 26 28 32 35 35 31 28 27 28 27 26 27 27 28 29 32 31 32 33 35 37 40 42 43 43 44
40 41 34 24 24 24 29 30 28 26 26 26 27 27 29 29 29 31 31 34 34 36 36 36 38 39 41 42 45 45 46 48
39 38 30 31 31 29 36 30 25 25 27 28 28 28 29 31 33 33 36 37 37 38 38 41 41 42 43 45 46 47 49 51

GFSFLT1_500_spd_066.txt.gz
Wind_Speed
6 6 9 11 10 12 15 8 19 27 30 27 26 22 24 23 21 23 27 22 24 26 29 30 25 29 26 27 27 27 28 27
6 8 10 12 10 10 10 11 3 17 23 29 27 30 26 26 25 24 26 23 29 28 30 28 29 28 29 27 27 27 27 25
8 11 13 13 10 8 8 6 7 5 7 16 21 28 32 30 33 26 29 29 32 26 28 29 30 24 25 27 24 19 22 22
9 10 13 14 10 7 5 2 1 2 2 5 8 17 30 33 33 29 28 34 31 28 28 25 25 27 24 23 20 19 20 21
11 13 12 13 10 8 8 3 1 1 1 2 6 7 8 11 18 26 31 32 28 28 28 25 25 24 22 26 27 25 24 26
9 12 10 11 9 7 8 5 3 4 3 3 1 4 5 7 7 9 12 13 13 16 22 25 24 25 29 27 25 23 28 28
9 7 8 6 6 3 6 7 4 3 6 5 5 3 2 3 8 10 9 10 11 15 21 24 24 24 25 25 27 29 29 30
12 10 8 7 8 8 7 8 4 3 2 3 4 6 6 6 8 9 11 13 14 17 21 24 25 24 26 28 28 31 29 33
15 13 10 8 8 10 11 9 9 7 6 6 5 7 8 10 11 13 14 16 19 21 22 24 25 25 28 32 32 30 32 35
17 16 12 11 11 13 13 11 9 9 12 11 10 10 11 14 16 18 19 19 21 21 21 23 25 28 32 34 30 32 31 32
22 18 17 15 14 15 14 14 13 15 15 16 16 17 17 18 18 20 21 22 24 25 25 25 28 30 31 32 31 32 33 33
23 22 22 19 16 14 15 18 18 20 22 22 23 24 25 25 26 27 29 32 31 29 29 27 30 33 37 33 33 33 30 38
23 30 26 22 16 14 15 20 21 22 24 26 27 28 28 33 38 41 42 40 36 33 32 31 41 40 46 37 33 42 37 38
22 25 28 27 23 18 22 23 25 24 24 24 25 25 28 27 28 25 29 37 44 33 34 43 45 36 44 37 34 32 34 36
25 27 25 26 29 31 27 22 25 26 27 25 22 22 25 27 29 25 21 16 11 22 21 22 25 26 37 33 28 34 38 41
25 24 26 28 32 36 29 25 24 26 28 27 24 28 31 30 25 26 23 20 19 19 22 22 22 24 25 26 32 36 39 40
32 25 25 29 30 28 32 34 30 30 33 34 34 36 33 29 27 27 25 25 26 25 24 26 29 29 29 33 36 37 41 43
33 33 26 29 33 35 33 31 31 31 34 35 38 32 29 29 29 29 28 27 28 31 30 30 31 33 35 37 39 42 45 49
35 28 28 30 30 35 29 29 33 31 32 33 31 29 28 30 31 31 31 32 32 34 33 35 37 39 40 38 43 46 51 53

GFSFLT1_500_spd_069.txt.gz
Wind_Speed
12 10 9 10 10 14 14 13 7 24 20 23 24 19 22 16 20 18 26 28 21 21 26 24 26 29 31 30 25 27 25 25
14 14 11 11 11 13 14 13 9 15 28 31 28 28 32 25 23 22 17 23 25 26 24 27 30 33 32 31 27 28 27 27
15 15 14 10 11 11 11 11 9 7 11 22 23 27 30 28 28 26 23 24 26 25 27 30 34 32 32 30 31 29 30 28
15 15 15 11 9 11 9 9 6 3 2 4 19 30 35 35 29 26 31 30 26 27 32 35 31 32 34 32 26 23 29 23
17 16 15 12 9 9 9 6 6 5 2 2 2 5 20 26 31 30 27 28 30 30 32 30 29 34 29 22 25 30 28 24
18 15 14 10 7 8 7 6 6 6 5 3 1 3 3 8 12 29 32 32 29 31 32 32 27 29 25 27 26 30 26 24
16 13 13 11 9 6 5 6 5 7 8 5 3 2 1 4 7 11 13 15 16 18 21 21 25 23 24 26 28 27 29 28
17 13 14 10 9 9 10 8 7 6 7 7 7 7 7 7 9 9 10 13 14 14 15 20 22 24 25 28 31 31 33 32
15 17 15 12 7 9 13 13 10 10 9 8 8 9 8 10 10 10 12 12 12 14 16 21 25 27 29 30 30 30 30 28
15 17 19 16 13 13 14 13 11 12 14 13 11 10 9 9 9 10 13 14 16 18 19 21 23 24 26 28 26 27 29 30
18 19 21 19 19 19 16 14 15 14 14 16 17 16 14 12 12 12 13 15 18 19 21 24 26 27 28 29 29 30 31 32
21 22 25 25 23 23 20 20 17 18 19 21 23 23 22 20 19 19 22 27 25 27 25 28 30 30 28 30 29 33 33 33
27 26 26 27 26 24 22 22 20 23 25 23 25 25 26 26 24 25 28 24 26 29 38 39 35 35 38 38 35 35 40 40
26 26 25 24 26 25 25 24 23 24 30 31 26 25 21 19 20 20 22 23 22 26 28 38 39 35 36 39 41 42 42 46
32 30 30 29 28 29 30 30 27 25 30 32 32 25 23 22 22 24 26 25 23 25 24 26 37 31 33 41 40 46 48 47
31 33 31 31 29 29 31 31 34 35 30 29 31 32 29 28 26 27 28 28 28 26 24 20 22 29 28 29 31 38 40 35
34 30 33 32 32 34 38 38 36 34 32 34 33 33 33 34 36 36 32 29 29 29 29 27 27 29 27 28 32 33 34 35
35 33 34 36 35 36 40 38 38 37 38 32 31 30 33 37 36 32 31 31 29 28 31 32 30 32 34 33 33 34 37 41
34 33 31 28 30 35 36 39 39 40 38 31 34 35 30 28 27 27 31 31 29 28 29 31 34 36 35 36 38 40 41 43

GFSFLT1_500_spd_072.txt.gz
Wind_Speed
16 15 13 11 11 10 9 11 14 9 16 20 24 20 15 21 21 17 23 25 27 22 23 22 23 26 27 27 27 31 31 29
17 16 16 12 11 10 10 11 12 8 18 23 24 17 18 18 16 20 15 22 24 21 19 19 22 24 25 27 31 34 33 32
22 20 18 15 11 9 8 10 10 6 15 20 23 25 23 23 23 24 22 21 19 26 27 24 23 27 25 31 33 34 33 29
23 22 16 13 10 8 7 9 9 6 0 11 21 28 25 25 30 28 25 26 27 23 27 28 29 31 32 34 35 34 33 29
22 20 16 16 13 9 7 7 7 7 4 2 4 6 23 31 32 33 31 30 28 27 34 31 27 32 36 33 36 35 29 25
19 21 16 14 15 12 8 8 8 8 8 7 4 4 4 15 32 33 35 37 31 29 32 30 31 32 31 31 33 30 26 24
17 17 15 15 13 13 9 7 8 9 9 8 6 6 4 4 5 17 38 41 37 32 33 33 34 33 32 26 24 24 25 25
15 16 15 13 13 10 10 10 9 8 7 6 8 9 7 8 8 7 6 12 21 19 27 30 31 29 25 25 24 26 28 27
17 16 17 15 13 12 12 11 10 11 12 10 9 8 8 10 9 8 8 8 11 11 13 16 20 23 24 24 24 29 26 27
18 13 14 18 14 16 16 12 11 13 13 14 14 12 10 9 9 10 10 11 11 10 12 15 17 18 21 24 25 27 29 31
22 23 17 23 21 19 20 17 15 14 16 16 16 16 15 13 11 10 10 11 11 13 18 18 21 25 26 26 25 28 30 30
25 24 20 22 26 24 24 22 20 18 18 18 19 20 20 19 17 17 16 17 18 19 17 22 24 24 28 32 30 32 34 34
26 26 24 23 26 28 26 25 24 22 21 19 19 24 24 21 23 24 25 23 24 23 21 21 23 27 34 34 33 35 36 35
30 30 27 26 29 31 31 31 28 25 25 24 22 22 25 24 21 24 22 23 22 24 24 25 23 24 27 36 44 42 38 39
29 32 32 28 30 31 30 33 33 31 30 28 27 27 27 27 27 27 23 22 24 27 29 29 30 28 29 36 39 42 39 48
33 32 37 36 34 33 31 34 33 35 34 31 30 32 29 31 28 29 29 30 30 31 32 32 33 32 29 28 34 32 33 35
37 36 36 39 39 38 37 34 36 38 37 36 36 32 31 33 33 33 34 34 35 37 36 33 33 31 31 31 32 34 35 34
35 39 40 39 40 40 40 40 40 42 43 41 40 37 37 35 34 33 33 34 34 33 31 31 32 32 32 34 35 35 37 39
35 37 39 42 41 42 42 40 41 46 47 44 43 42 39 38 37 37 35 34 32 32 33 32 31 30 32 33 34 36 37 38

GFSFLT1_500_spd_075.txt.gz
Wind_Speed
15 13 14 13 14 15 15 14 12 13 12 16 18 18 15 14 16 24 30 30 30 30 33 41 39 47 33 29 32 33 31 35
16 14 16 14 14 15 14 15 13 11 10 12 14 20 21 14 10 19 22 20 21 20 16 18 30 32 29 30 30 29 29 31
16 16 17 16 16 13 14 14 13 10 10 15 18 20 16 18 14 17 12 15 17 18 16 18 21 22 24 26 25 26 29 31
15 16 15 16 13 12 13 14 11 8 9 8 20 18 25 25 21 23 21 18 17 18 16 17 24 27 23 24 27 26 28 31
13 16 15 15 14 13 12 13 13 8 6 6 7 10 19 28 29 28 29 27 24 22 24 23 23 27 25 26 28 31 29 27
12 13 13 17 16 13 11 11 11 10 9 9 10 11 10 11 18 27 28 28 28 28 27 26 24 29 28 28 28 31 30 28
12 10 13 14 14 9 10 11 10 10 11 10 11 11 11 9 8 9 25 36 34 35 31 30 26 25 29 32 30 28 28 22
13 11 13 13 13 9 7 9 8 8 8 7 8 10 11 10 11 10 9 9 20 33 37 33 29 31 30 34 30 31 29 23
13 15 16 15 14 12 8 8 8 8 8 10 9 9 9 9 12 11 12 7 5 7 7 18 23 29 26 22 24 21 21 24
15 17 17 18 17 16 14 10 9 9 11 10 11 12 10 11 11 11 12 11 10 8 10 11 13 15 15 18 17 20 24 24
19 19 19 18 20 20 19 17 14 11 11 13 14 12 11 12 14 14 12 11 12 11 12 12 15 16 19 20 19 21 24 26
24 23 22 25 24 24 24 23 20 17 17 17 16 14 13 13 13 15 18 16 16 16 18 16 16 19 23 23 24 27 29 30
26 27 26 25 25 24 24 26 25 24 22 22 20 21 20 17 17 18 18 19 22 23 23 23 20 20 21 26 29 32 35 37
28 31 30 28 30 29 27 27 28 29 27 27 26 23 23 25 23 20 22 20 22 22 24 23 23 23 23 23 26 27 30 39
35 35 35 34 32 33 33 31 32 33 31 29 30 29 29 31 30 27 22 23 25 25 25 26 26 24 24 27 29 31 33 36
37 35 35 37 37 34 36 35 34 33 35 33 33 33 32 33 31 29 32 28 28 30 31 32 33 33 33 32 33 34 35 33
26 39 40 39 38 38 38 38 37 37 38 35 37 37 36 35 34 33 33 32 32 34 36 38 40 38 34 34 35 35 34 34
33 32 28 41 43 42 43 42 43 43 42 39 40 42 41 39 39 40 38 38 37 36 36 39 38 38 38 36 37 37 36 34
32 34 33 35 36 45 45 46 47 46 44 43 44 43 42 44 44 43 41 41 40 40 41 38 38 36 36 38 40 39 37 36

GFSFLT1_500_spd_078.txt.gz
Wind_Speed
17 15 15 13 11 14 16 17 19 17 18 14 10 13 13 13 13 19 23 26 24 29 31 41 35 34 40 37 35 47 41 29
19 15 16 14 13 14 16 15 19 20 16 12 11 13 15 9 11 13 15 19 27 29 30 36 39 41 36 39 37 46 32 25
19 15 16 13 12 11 12 12 14 17 17 13 9 9 14 12 16 7 8 17 18 21 24 26 29 37 36 31 29 32 22 21
16 16 14 11 8 9 11 11 12 14 15 12 7 11 13 14 16 13 13 17 15 16 17 13 11 12 12 13 16 22 21 24
16 14 13 10 7 8 9 9 11 12 12 10 6 4 6 11 17 27 25 23 22 17 16 15 14 10 12 20 21 21 22 27
17 15 12 11 8 8 8 6 8 11 11 10 9 8 6 7 10 13 19 24 25 24 19 19 17 18 15 20 24 23 22 25
16 15 15 11 7 6 7 4 5 7 9 9 10 10 11 10 9 8 6 17 23 21 21 22 24 20 19 21 22 30 27 26
14 13 16 12 9 7 7 4 5 4 7 7 6 8 8 9 9 7 4 5 6 17 30 31 30 28 27 24 26 26 29 29
17 15 17 15 13 12 10 6 4 4 5 6 7 7 9 9 9 7 6 6 5 4 4 12 28 35 33 30 29 29 29 27
20 18 16 19 15 15 16 12 7 7 6 7 7 8 9 10 11 11 9 8 7 6 6 5 5 6 15 24 24 21 23 22
28 18 18 21 21 19 18 17 15 11 10 10 9 9 8 9 10 13 14 13 11 10 10 9 9 9 12 16 17 20 22 20
26 22 23 23 23 23 21 20 20 17 15 15 15 14 12 12 12 12 14 15 15 15 14 14 14 15 16 17 18 21 21 22
32 28 27 26 27 26 25 26 22 23 22 19 19 19 17 16 16 17 17 16 17 18 21 22 23 24 22 19 19 21 24 28
26 35 32 30 30 30 27 27 26 26 26 25 24 23 21 22 22 22 22 22 20 21 21 21 22 26 26 23 23 24 25 27
31 30 31 31 36 33 30 29 30 30 30 30 29 26 26 26 28 28 26 25 24 21 25 25 26 27 26 25 24 25 27 30
34 35 40 40 39 39 35 34 32 33 34 33 30 30 30 31 32 31 30 29 28 29 28 29 30 32 32 32 33 33 35 37
29 31 30 40 41 39 39 40 39 39 38 35 34 35 35 34 34 34 33 33 33 32 32 31 31 35 36 38 40 41 41 41
29 29 29 27 31 32 43 40 40 41 38 38 38 38 38 38 38 38 38 36 37 38 38 37 36 36 36 37 39 44 45 43
30 31 31 32 32 33 30 32 36 42 43 42 43 42 40 41 41 41 41 38 38 39 39 41 39 37 39 39 41 42 46 45

GFSFLT1_500_spd_084.txt.gz
Wind_Speed
14 16 16 23 20 18 16 19 17 14 13 10 11 6 6 6 3 11 31 42 40 41 33 27 24 25 26 26 20 20 27 31
16 16 15 20 21 16 17 18 19 13 12 10 10 6 7 5 1 4 20 35 31 27 27 29 32 27 29 34 27 23 21 41
16 13 15 17 19 17 17 17 14 13 8 7 8 4 8 7 9 7 9 22 25 24 25 30 31 30 26 27 25 25 23 27
16 12 15 15 18 17 17 16 11 12 7 5 5 3 6 11 12 12 11 11 11 10 11 16 18 19 22 22 21 24 29 30
17 13 13 14 16 15 17 17 12 10 9 5 3 1 1 4 7 8 10 11 14 14 15 12 12 15 21 16 15 22 29 28
16 11 13 13 15 13 16 17 13 11 10 5 3 4 4 3 4 5 8 12 17 20 16 14 13 18 13 9 9 9 11 16
13 13 15 13 15 12 14 18 15 12 10 6 4 5 5 5 4 5 5 8 12 17 21 19 18 17 13 15 16 18 19 19
18 13 16 15 15 12 13 18 17 13 11 7 4 3 2 2 3 4 5 5 5 7 14 19 22 22 21 21 19 22 24 25
21 16 17 18 16 13 16 19 20 15 12 10 8 6 5 3 3 3 2 3 5 6 6 7 14 24 27 28 28 26 28 28
19 18 20 21 20 15 19 20 21 18 14 13 11 8 7 7 7 6 5 5 4 6 8 9 8 8 13 19 27 35 32 33
25 23 22 19 23 19 19 21 23 23 18 17 15 13 11 10 9 8 6 7 8 8 9 10 12 12 12 12 11 13 24 32
31 28 24 20 25 22 21 23 22 26 25 22 19 18 16 15 14 13 11 9 7 9 12 13 14 15 15 16 14 14 15 17
34 33 24 23 26 25 25 25 26 27 30 28 26 24 21 20 19 19 17 16 14 13 11 13 17 19 20 21 22 22 22 20
35 32 25 23 20 24 26 27 30 31 31 31 30 29 26 26 24 23 23 22 21 19 18 18 19 20 23 24 24 24 25 26
39 33 30 26 25 24 25 28 28 32 34 34 33 31 29 31 31 29 28 27 26 25 25 24 23 23 23 24 26 26 27 28
42 36 32 30 29 28 28 25 29 33 33 35 33 36 34 33 33 33 33 33 31 32 31 30 30 28 26 27 28 29 29 31
43 40 42 36 33 31 31 28 30 32 28 33 35 34 38 40 39 39 38 36 35 36 34 33 35 34 32 33 34 34 35 36
48 46 41 39 37 37 37 36 38 40 39 40 39 37 40 38 39 42 41 39 39 39 39 38 34 36 36 36 39 42 42 40
42 40 43 49 43 45 44 47 43 41 42 40 40 40 41 41 42 43 42 42 43 43 42 42 43 40 39 41 42 46 47 45

GFSFLT1_500_spd_087.txt.gz
Wind_Speed
27 24 26 26 24 23 19 18 17 19 18 18 19 15 11 10 9 13 18 37 41 36 34 31 25 28 26 26 25 22 22 21
29 25 25 25 25 22 18 19 15 19 16 14 16 15 10 11 9 13 21 32 43 39 37 37 29 31 25 27 30 30 23 25
31 26 24 27 23 22 17 20 13 15 15 13 11 13 10 10 10 10 18 28 43 46 41 41 33 31 31 31 31 32 30 28
32 26 25 28 23 20 18 20 14 12 16 11 11 9 9 10 12 7 7 22 29 35 33 31 28 29 32 34 35 31 32 30
35 27 26 28 24 19 17 19 15 12 15 12 10 9 4 7 11 9 9 11 22 31 25 26 25 25 30 29 29 26 26 29
36 25 25 31 25 19 16 17 16 13 14 12 10 10 7 7 8 13 14 13 14 18 19 25 27 28 23 25 30 30 30 29
32 26 30 31 26 20 15 16 17 14 14 13 9 10 10 8 7 8 8 9 12 17 23 24 22 21 20 19 21 22 20 18
31 31 29 30 26 21 15 16 19 16 15 13 10 10 10 10 10 10 10 10 11 11 19 25 25 23 22 21 20 21 20 20
31 28 27 28 24 21 18 17 20 18 17 14 11 11 10 10 9 9 9 10 10 8 6 9 16 20 24 24 24 23 21 22
29 29 27 25 24 22 20 20 20 21 21 17 14 12 12 11 11 9 8 8 8 8 9 9 11 14 19 24 26 26 26 27
33 28 27 24 26 27 22 22 22 23 23 21 18 16 14 13 12 11 11 11 11 10 9 9 11 13 12 12 15 19 19 24
31 31 30 26 29 29 27 24 25 26 26 26 23 21 19 17 15 15 14 14 14 12 13 14 14 15 15 16 17 17 18 17
36 36 35 34 28 30 28 26 25 27 27 29 29 27 25 23 22 20 19 18 17 17 17 16 18 19 20 20 21 22 23 23
37 35 37 36 28 29 25 24 23 25 28 27 28 31 31 31 29 28 26 24 22 21 21 22 22 22 22 23 25 27 28 30
41 41 38 35 33 32 29 29 26 27 28 27 28 32 33 35 36 35 33 31 29 28 27 28 28 28 26 26 27 28 31 32
44 41 41 39 35 34 31 30 29 27 28 30 34 36 37 37 35 37 38 38 36 34 34 32 32 33 31 31 32 33 33 33
48 48 45 43 39 41 38 34 32 31 31 30 33 31 34 43 36 36 36 36 38 39 37 37 38 37 37 36 37 38 40 40
52 53 46 44 39 41 40 38 35 31 30 30 31 35 35 32 34 39 42 41 41 42 41 42 41 40 40 41 41 43 44 45
43 46 44 46 44 46 45 41 37 35 36 36 37 40 41 43 43 44 43 47 48 47 46 44 45 43 43 45 47 47 49 49

GFSFLT1_500_spd_090.txt.gz
Wind_Speed
33 29 28 29 29 25 26 24 25 19 18 18 22 23 24 24 18 14 11 26 39 44 35 27 29 31 30 30 28 29 23 23
31 30 28 32 30 27 25 23 23 20 17 14 18 22 23 19 13 12 9 33 34 35 28 30 27 22 27 29 26 25 26 23
32 32 30 32 32 30 25 24 22 20 18 12 14 19 22 16 12 12 9 25 33 36 34 32 31 27 24 26 25 25 29 31
33 31 32 35 32 32 27 24 18 20 20 12 12 15 18 11 10 9 9 14 30 35 35 35 36 32 29 25 30 30 31 32
32 30 30 36 33 33 29 26 17 17 20 12 10 14 15 9 11 14 11 10 24 35 38 35 35 30 34 33 33 34 34 34
34 31 32 41 40 35 31 29 18 15 18 12 9 11 14 9 7 11 12 10 11 29 31 33 29 30 32 30 28 33 36 32
36 33 34 44 43 39 31 30 19 16 17 13 10 9 12 13 9 7 8 12 13 14 21 24 24 26 30 32 31 30 32 33
39 36 32 43 43 38 32 30 21 17 17 15 12 10 10 12 12 11 9 10 11 14 19 22 23 25 29 29 26 24 26 29
39 36 34 40 39 39 33 30 23 19 18 16 16 11 10 11 12 11 13 14 13 13 13 17 27 30 32 29 26 23 20 23
42 37 35 33 36 38 35 29 24 22 20 19 19 15 13 13 12 12 11 11 12 12 13 12 11 14 19 23 25 27 27 27
38 38 38 34 37 36 36 30 25 25 23 22 22 19 18 15 14 13 12 13 12 11 11 11 11 13 14 15 15 19 23 26
38 42 35 35 36 36 38 31 25 25 26 25 25 24 22 20 18 15 14 14 13 12 14 15 15 15 14 15 16 16 16 17
43 41 36 36 41 41 36 30 28 25 27 26 27 26 25 24 23 22 20 18 17 16 14 14 16 18 19 20 20 20 20 21
36 38 41 42 42 42 36 30 27 26 26 28 27 26 27 27 27 27 26 25 23 22 21 21 21 20 19 19 21 24 25 27
40 40 39 42 43 40 33 25 26 26 28 26 27 29 28 28 30 30 31 31 29 30 30 29 28 27 26 26 26 26 27 28
43 45 45 44 44 38 34 31 32 30 31 29 32 33 33 32 32 33 33 32 32 32 34 34 34 33 32 32 33 34 34 34
46 52 48 46 44 41 40 37 33 33 28 27 26 25 28 29 30 33 32 40 38 37 35 37 37 37 37 37 38 40 41 42
46 53 49 48 45 43 43 40 38 32 34 34 29 27 27 28 28 29 32 27 26 35 39 39 40 39 41 41 43 44 45 46
47 44 51 48 46 51 44 43 41 36 38 36 32 30 31 31 31 32 35 35 38 39 39 43 46 48 48 47 46 47 48 49

GFSFLT1_500_spd_093.txt.gz
Wind_Speed
41 34 30 27 30 32 27 26 24 25 28 21 19 22 22 24 25 25 20 25 16 25 32 35 45 42 36 27 24 32 32 32
44 39 31 30 30 30 27 26 26 26 27 23 18 22 20 23 24 20 18 19 19 22 35 43 44 40 38 32 31 29 29 29
43 40 33 31 30 29 29 28 27 27 28 23 18 21 19 20 21 15 15 16 22 26 38 42 41 35 33 30 33 29 30 29
40 37 34 33 29 29 30 30 28 27 28 23 16 19 17 18 16 12 11 4 20 26 32 40 33 33 34 30 31 35 29 27
41 38 36 32 29 30 31 31 31 29 27 24 15 16 16 14 11 10 12 6 8 29 31 30 31 33 31 30 30 31 34 30
35 39 36 34 32 29 33 32 31 31 27 25 15 15 15 12 9 7 10 10 10 15 23 34 28 28 27 34 28 32 30 34
35 39 38 38 34 31 35 35 34 34 28 25 16 15 13 14 10 9 8 11 11 7 19 24 31 28 26 27 36 31 28 29
35 36 39 39 34 30 37 39 35 37 29 28 18 17 12 13 12 11 10 8 10 12 11 13 17 23 22 24 26 26 26 27
35 38 42 39 36 34 38 40 38 38 31 30 22 18 12 13 13 12 11 11 11 11 12 12 16 20 22 26 25 24 23 21
37 40 42 41 38 34 40 40 40 40 33 32 26 20 15 15 15 14 13 13 13 13 13 14 15 18 23 27 28 28 28 28
38 44 41 40 40 37 39 40 41 39 33 32 29 23 19 18 16 15 14 14 15 15 16 15 15 15 15 17 21 23 25 28
42 42 40 41 42 40 39 41 41 37 32 32 31 27 23 20 17 14 12 13 14 15 16 16 17 15 14 14 16 17 17 18
37 40 42 45 47 44 42 41 39 37 33 32 30 29 24 22 20 18 17 14 13 13 14 14 16 17 17 17 18 20 20 21
37 45 43 48 48 44 38 40 40 37 34 31 29 28 26 25 24 22 21 19 18 18 18 18 17 16 16 17 19 20 21 23
33 44 50 55 49 39 39 43 41 36 32 30 29 28 28 28 27 27 28 27 25 24 24 23 23 22 22 23 23 24 24 25
32 39 47 48 43 38 40 43 40 36 35 33 33 34 34 33 31 31 30 29 29 29 29 31 30 29 29 29 30 30 31 32
29 28 44 43 42 41 42 43 41 41 37 33 33 34 36 35 35 36 34 30 20 23 23 31 35 34 34 35 35 36 36 37
34 27 40 42 42 45 48 48 46 41 37 37 33 30 23 25 25 25 22 24 24 26 26 25 25 33 34 35 36 38 40 41
16 33 44 46 48 49 51 49 44 43 44 50 30 23 25 25 21 21 23 25 27 28 31 32 33 35 35 37 40 43 45 47

GFSFLT1_500_spd_096.txt.gz
Wind_Speed
45 44 36 33 35 33 35 35 27 28 25 24 25 26 24 23 24 26 24 26 25 30 26 30 30 30 35 37 39 40 31 28
49 47 42 35 35 34 36 36 32 28 26 24 27 27 25 23 23 25 24 24 23 27 24 31 34 33 34 40 40 40 34 30
51 49 46 39 36 35 37 37 33 29 26 24 28 27 26 22 22 22 23 22 23 21 23 28 32 35 39 44 40 33 25 27
49 46 45 42 37 35 37 37 35 30 26 23 28 27 26 20 20 20 20 17 20 18 18 24 31 35 36 36 37 28 27 27
47 46 44 40 35 38 40 36 34 30 24 23 27 27 26 20 18 16 17 13 14 5 17 32 30 35 40 38 34 31 32 28
43 43 43 41 38 40 42 37 35 31 25 23 26 29 27 21 16 15 16 11 9 10 12 25 34 39 38 36 34 28 29 29
41 41 41 40 39 43 43 40 36 31 27 25 25 29 27 23 15 14 15 12 11 8 9 22 27 32 33 35 34 35 33 29
42 41 43 42 42 43 43 42 38 31 27 27 25 28 27 25 17 13 15 12 10 12 8 19 21 34 24 28 29 29 33 35
42 42 43 42 45 45 42 43 38 34 27 28 26 28 27 26 18 13 14 15 11 10 8 10 10 24 22 25 26 21 25 24
42 43 45 45 47 46 45 44 41 38 30 31 28 30 28 26 19 16 15 14 13 13 11 10 11 13 16 17 20 23 23 23
44 46 47 49 49 50 47 45 43 41 36 33 30 30 29 26 23 17 15 16 13 13 14 14 14 13 13 16 17 22 24 26
44 46 45 51 51 51 48 46 46 42 41 37 31 30 30 28 27 18 16 15 15 14 12 12 11 11 13 16 14 14 16 18
32 37 41 47 49 51 49 49 48 46 45 38 31 30 31 28 30 22 19 16 14 13 13 13 13 15 13 13 14 15 17 18
32 34 38 48 47 51 51 50 49 48 48 39 32 31 30 28 29 27 23 21 20 19 18 18 16 15 14 15 16 17 18 20
34 32 36 42 47 51 49 52 49 48 47 41 33 31 31 30 31 31 29 26 25 25 24 23 22 21 21 22 21 21 20 21
33 36 33 41 48 51 56 53 49 51 48 40 33 33 35 34 34 34 34 33 31 30 29 28 27 28 28 28 27 26 26 26
30 39 45 41 49 55 61 52 52 49 44 38 35 38 38 37 38 39 39 37 34 34 34 29 31 27 30 32 32 31 30 30
9 33 40 41 46 53 51 46 52 45 44 44 42 42 41 41 42 43 44 41 40 38 29 27 27 23 23 26 32 34 33 34
12 6 29 33 43 46 41 51 48 45 45 48 44 43 40 38 40 37 41 41 34 27 29 29 28 28 29 30 31 33 34 36

GFSFLT1_500_spd_099.txt.gz
Wind_Speed
45 44 41 38 38 38 40 36 35 36 34 27 29 26 25 24 27 25 25 26 28 29 28 26 31 28 28 28 33 33 34 45
47 46 44 42 39 38 41 38 36 36 38 30 30 28 26 25 27 25 26 28 27 28 28 28 37 31 29 26 30 30 37 48
48 48 48 44 41 36 37 40 39 37 40 35 31 29 26 25 27 25 27 27 27 26 29 31 33 35 36 32 31 31 37 43
47 44 45 46 46 38 39 42 43 39 40 37 32 29 24 25 26 25 26 26 25 24 28 26 29 35 36 35 34 32 37 43
49 48 47 47 47 41 38 40 43 38 39 37 33 29 22 23 25 24 26 24 22 23 26 21 22 31 36 36 36 33 37 40
48 47 47 48 47 45 39 39 42 37 39 38 35 31 22 21 24 22 26 23 18 19 20 14 21 29 36 38 36 36 37 33
53 50 49 47 46 45 40 39 38 39 39 39 36 34 23 20 23 22 24 23 17 16 17 14 21 26 32 30 31 34 36 31
50 48 47 45 43 44 37 40 39 41 39 40 37 37 24 21 21 22 23 23 16 14 14 9 15 22 32 33 35 37 32 28
45 43 44 43 43 43 39 38 42 44 41 41 38 40 26 22 21 21 22 23 16 13 11 10 24 14 27 31 34 31 31 28
41 41 42 41 43 44 42 39 44 45 43 43 39 41 29 24 20 19 21 24 16 13 13 10 11 10 17 26 23 29 30 24
39 40 41 43 44 45 44 42 44 46 45 43 42 40 33 25 20 20 22 23 17 14 15 13 11 10 12 10 14 12 16 22
39 39 40 42 43 44 46 43 45 45 46 44 46 42 34 26 22 20 23 23 21 15 15 15 15 14 15 15 21 23 23 24
38 40 40 41 42 44 43 46 46 46 47 48 48 46 35 29 25 22 24 24 23 19 18 18 17 16 16 16 17 19 18 17
32 36 38 41 41 42 41 47 47 49 49 50 48 49 38 32 27 25 26 27 26 23 21 20 19 18 18 18 18 18 18 18
33 34 35 35 36 39 41 45 50 52 52 53 52 50 42 35 30 27 29 31 30 30 27 25 24 23 21 18 19 18 18 19
32 33 27 34 34 38 42 46 54 54 54 54 55 52 44 37 33 31 31 34 35 34 32 30 30 28 24 24 24 24 23 23
21 26 25 32 35 33 40 48 54 54 54 57 57 51 44 38 36 36 34 35 36 37 37 37 34 31 31 31 31 30 30 30
17 25 30 37 37 36 38 48 54 55 56 56 58 51 45 46 41 41 39 38 40 42 42 43 41 39 37 36 36 35 36 38
14 13 16 19 38 41 40 46 53 57 58 53 55 53 51 48 44 42 40 39 41 45 47 48 44 35 38 36 33 31 31 31

GFSFLT1_500_spd_102.txt.gz
Wind_Speed
49 45 43 41 38 39 41 39 31 35 38 38 33 30 28 29 27 26 25 23 25 29 27 28 30 29 28 25 25 28 29 30
46 42 43 42 40 40 42 39 32 34 38 38 34 35 30 29 28 29 26 24 26 29 28 28 30 26 29 30 29 28 30 33
44 44 46 45 42 41 40 39 36 34 35 39 36 37 33 30 29 29 27 25 25 27 29 28 28 26 32 33 31 29 30 34
48 51 51 45 43 41 38 36 38 33 32 39 38 38 33 31 30 30 27 25 24 26 28 29 27 31 32 38 34 31 29 32
56 51 48 47 46 42 39 36 37 37 30 39 40 38 35 31 30 30 27 25 23 25 28 26 27 30 29 36 41 34 34 34
53 53 50 48 46 43 41 39 36 40 28 39 40 38 35 32 30 30 25 23 23 25 26 25 26 29 25 32 37 40 37 34
58 54 53 49 46 44 42 43 39 39 32 39 40 37 36 33 30 30 25 22 21 24 24 25 23 28 21 28 34 37 35 37
60 56 55 52 49 48 47 49 43 39 33 42 43 35 36 35 30 31 26 21 21 21 22 23 20 23 21 28 35 34 34 37
56 56 53 52 50 50 49 50 48 38 36 43 42 37 37 37 31 32 26 19 21 20 20 20 17 13 19 25 33 37 36 37
35 48 51 47 44 41 45 46 45 35 36 43 42 39 38 38 33 31 27 19 20 19 20 18 15 11 13 17 26 32 32 32
33 37 39 39 40 40 42 46 44 36 42 43 42 40 40 39 35 32 28 20 21 20 19 19 16 13 13 14 20 18 13 24
33 35 37 38 38 41 40 45 41 41 42 43 41 40 42 41 35 33 29 22 23 22 18 20 18 16 14 13 16 13 13 13
32 35 38 38 39 38 37 43 42 42 41 39 40 41 40 43 36 34 30 24 24 24 21 23 20 19 19 17 16 23 21 20
25 32 36 34 36 37 38 38 38 39 42 40 42 43 42 44 39 35 31 27 26 27 26 25 25 22 20 19 19 21 24 23
19 25 28 30 31 30 31 34 34 38 39 42 44 44 45 47 41 35 33 29 29 29 30 29 27 25 22 20 20 22 22 22
17 22 27 30 31 29 28 28 31 34 39 42 45 47 48 48 43 35 33 32 32 31 33 34 31 26 23 23 22 22 23 24
15 17 21 27 27 28 28 33 33 36 37 44 48 50 49 47 45 38 37 36 33 33 35 35 34 32 32 31 31 30 29 30
13 14 17 24 22 24 35 35 38 39 40 46 51 53 52 51 48 43 40 41 39 38 37 39 38 38 38 39 38 38 36 35
11 12 12 15 17 21 36 36 36 38 41 47 54 56 57 56 52 47 45 47 45 43 41 40 41 41 42 43 43 42 42 42

GFSFLT1_500_spd_105.txt.gz
Wind_Speed
51 49 49 44 42 44 39 34 31 29 36 33 33 33 31 30 26 24 26 28 28 27 28 28 30 29 27 28 25 24 22 23
49 49 49 45 44 46 43 37 34 28 30 37 34 33 33 33 27 24 25 28 28 28 28 29 28 28 29 26 24 26 27 24
49 47 47 43 44 46 43 37 35 28 30 36 39 36 37 34 28 25 27 27 29 29 27 29 27 28 28 26 25 30 33 28
48 49 46 44 47 44 41 39 38 31 29 33 40 39 37 34 28 29 28 28 29 29 29 28 27 28 29 28 28 34 32 31
54 56 52 49 48 42 41 41 41 38 32 33 38 40 38 35 31 30 28 29 30 28 29 29 28 27 30 28 30 29 35 39
60 59 52 53 46 42 42 41 39 38 35 29 35 39 37 36 33 31 28 29 29 29 29 28 27 27 31 29 32 27 36 38
59 59 58 49 47 44 42 41 40 37 37 26 34 40 37 35 34 31 28 29 29 29 29 28 26 26 29 27 29 26 37 40
62 64 56 53 51 49 48 45 42 40 38 32 32 41 42 35 35 32 29 27 29 29 28 28 26 25 27 25 24 27 37 40
54 53 53 51 49 49 51 48 46 49 42 39 36 42 46 38 37 32 31 27 27 29 28 27 24 23 23 20 20 26 30 37
38 41 44 50 57 59 54 49 50 53 49 40 40 44 47 41 38 33 31 28 28 29 28 25 23 21 22 18 8 21 34 34
34 35 37 41 48 52 59 57 49 52 48 39 42 47 46 42 39 34 31 29 27 28 28 26 22 21 21 19 15 10 27 34
28 28 29 32 35 38 43 49 45 46 44 41 43 45 46 41 40 36 34 30 27 28 28 27 23 21 20 20 16 17 22 27
27 28 28 29 31 34 35 36 40 43 45 42 43 46 46 42 40 38 34 31 27 27 29 28 26 23 20 23 18 15 22 20
23 28 32 33 34 36 37 36 37 42 43 43 41 44 44 42 40 40 36 32 29 27 30 30 28 26 22 23 20 20 21 22
18 20 25 30 33 34 34 34 36 38 39 39 41 43 42 41 41 42 39 34 31 29 29 32 30 27 25 21 25 24 22 24
13 17 17 19 23 26 28 29 30 33 36 37 40 41 42 43 44 46 43 36 31 29 28 30 30 29 27 24 25 26 27 26
11 12 15 19 18 19 22 21 22 25 26 30 35 38 43 45 45 45 42 36 31 30 30 31 32 31 30 30 30 29 29 28
11 11 13 14 18 17 19 25 27 27 29 32 33 38 42 45 47 46 45 43 38 36 36 35 35 33 33 34 35 35 35 34
8 9 10 12 14 17 16 23 22 35 35 35 40 40 43 46 49 49 49 45 45 43 42 39 38 38 37 38 38 39 40 40

GFSFLT1_500_spd_108.txt.gz
Wind_Speed
55 49 47 46 49 42 40 40 36 32 32 33 35 30 30 28 29 28 26 27 26 26 27 27 28 29 28 27 26 26 26 27
55 52 49 45 49 47 42 39 39 35 34 31 35 33 33 31 28 27 26 27 28 27 27 27 29 30 30 28 26 24 24 26
63 58 55 51 48 50 45 44 40 38 36 31 33 37 35 32 31 28 26 27 30 28 29 27 29 29 31 29 27 26 28 27
63 59 59 56 51 52 50 47 43 38 36 35 30 33 36 34 31 32 29 30 30 30 30 28 29 30 31 29 28 28 28 29
59 59 59 56 53 50 50 45 42 39 36 34 29 32 37 36 35 36 32 30 30 30 30 29 29 30 32 31 29 30 32 33
52 55 56 56 58 52 48 43 40 37 32 34 33 29 32 36 35 37 35 32 31 32 31 29 28 29 32 32 30 32 36 33
53 46 51 53 55 52 46 44 40 37 34 33 30 33 31 36 35 38 36 34 33 32 31 30 29 30 32 33 30 32 32 37
51 57 55 54 50 49 49 45 44 44 40 38 31 33 36 38 38 39 37 33 33 32 31 31 28 29 31 32 29 31 31 24
56 59 57 55 54 54 53 47 46 46 46 42 36 31 34 40 41 38 38 35 35 35 32 32 27 29 30 32 27 30 28 26
58 60 59 58 53 47 48 51 49 47 49 47 45 29 35 41 44 42 41 36 36 37 33 33 27 28 29 29 26 27 19 23
46 54 51 50 47 48 51 52 51 48 49 55 48 40 43 47 47 48 42 38 38 38 34 34 28 27 28 29 25 23 21 17
34 40 45 46 47 49 49 48 51 55 59 61 54 44 48 48 48 48 42 38 40 38 35 34 30 26 27 29 26 21 22 21
30 36 38 37 37 37 38 40 41 46 53 54 54 55 53 47 47 46 42 41 41 39 37 35 29 25 27 29 26 22 18 21
30 30 32 35 35 34 34 35 34 39 47 48 50 53 51 50 46 45 43 42 43 40 38 35 30 26 27 27 29 21 17 19
16 18 22 26 28 29 30 31 33 34 36 37 38 45 49 46 44 43 42 43 45 40 40 37 31 27 26 27 30 25 23 21
11 14 18 19 20 23 29 33 35 36 36 38 41 42 42 41 43 42 42 44 46 43 42 38 30 28 29 29 30 30 26 26
13 15 16 16 16 17 20 24 29 32 35 37 37 40 38 39 40 42 42 43 44 44 39 37 33 32 31 30 31 33 30 28
6 7 9 13 15 14 14 17 22 26 31 32 31 29 34 38 38 35 40 37 41 44 40 39 37 35 35 33 32 33 35 32
7 7 7 8 10 11 12 13 15 19 29 30 29 32 35 35 39 45 43 48 46 46 46 46 43 38 37 37 35 35 37 38

GFSFLT1_500_spd_111.txt.gz
Wind_Speed
66 68 69 64 55 44 38 42 38 36 36 31 32 35 33 33 30 28 29 25 22 23 24 25 26 24 25 26 27 28 26 26
70 73 72 67 57 46 47 43 42 41 37 33 30 33 36 33 32 31 31 26 23 25 25 26 28 27 26 27 27 29 27 26
70 74 73 69 57 52 50 48 45 45 39 37 32 34 35 36 36 31 31 28 26 26 28 27 29 28 27 28 27 28 27 27
71 72 72 66 62 55 53 50 46 45 44 41 35 36 37 36 34 32 33 33 31 29 30 29 30 29 28 28 27 29 29 27
73 73 73 74 65 58 52 51 46 45 44 40 37 36 36 34 36 37 35 35 33 29 30 32 32 30 29 30 28 28 30 28
66 72 74 71 59 62 54 52 49 43 43 38 37 34 33 34 36 38 35 36 34 31 31 35 34 32 31 30 30 29 31 30
61 64 63 64 63 61 51 51 52 46 40 39 37 30 34 35 36 31 36 36 36 33 33 36 35 34 33 31 30 28 31 31
52 53 50 54 51 54 51 50 52 51 44 41 37 34 36 35 34 35 36 36 36 33 35 38 37 35 35 31 31 28 31 32
48 44 50 48 45 49 53 52 49 54 53 46 42 39 37 37 37 40 40 41 39 36 36 38 36 36 35 32 31 27 29 30
47 47 44 51 54 53 48 44 48 49 54 48 46 43 40 39 39 42 42 44 39 37 37 38 37 37 36 34 32 28 28 30
47 46 49 56 54 53 50 46 50 46 45 48 52 49 46 42 46 44 42 45 42 39 39 40 38 38 37 35 32 30 27 30
46 48 50 55 54 54 54 52 51 49 47 47 51 53 51 49 47 48 43 46 46 44 41 44 40 40 39 36 32 32 27 28
30 40 42 46 49 60 56 54 55 51 51 53 53 55 55 51 45 47 44 44 48 46 48 42 41 42 40 37 34 33 28 27
22 20 30 29 23 38 53 50 49 49 48 50 51 52 54 56 56 56 54 57 47 46 47 43 44 42 41 38 35 33 30 27
24 23 20 24 28 32 38 42 42 41 40 41 40 39 42 48 51 52 50 52 46 45 44 43 43 41 42 39 37 34 32 29
6 7 8 11 17 22 27 30 33 41 38 38 36 37 37 39 41 48 46 41 41 45 45 42 44 41 41 39 40 36 33 32
3 7 9 11 12 14 18 21 27 32 35 37 37 37 38 38 38 40 40 38 39 46 48 44 45 42 41 41 42 39 36 33
3 3 4 7 11 12 13 15 20 26 30 33 36 37 38 38 36 36 37 35 43 44 46 39 46 45 45 43 44 43 39 35
4 3 3 5 7 9 10 12 13 14 22 29 34 36 36 37 38 39 38 39 39 54 60 44 48 46 50 45 46 46 43 39

GFSFLT1_500_spd_114.txt.gz
Wind_Speed
69 73 73 69 68 66 60 47 43 42 39 36 33 31 29 29 29 27 27 27 29 24 25 23 21 20 20 22 22 22 22 23
72 75 76 76 73 69 64 52 50 46 45 36 34 33 33 33 31 29 29 30 30 25 26 26 24 23 21 23 23 24 23 24
69 75 78 77 75 71 66 58 51 48 48 42 40 36 35 37 33 30 30 32 31 28 29 28 27 26 24 24 24 25 24 25
67 71 74 75 74 73 69 65 52 51 48 46 41 39 37 37 36 34 35 34 34 33 31 30 30 29 27 27 27 25 25 25
66 70 73 74 74 72 69 65 52 50 50 46 43 40 39 39 38 38 39 39 37 32 32 33 31 31 31 30 29 27 27 25
67 67 71 71 72 71 70 66 55 51 47 44 42 43 40 42 39 37 39 43 36 35 35 34 32 34 34 31 31 30 28 26
62 62 68 71 71 70 68 65 56 50 46 47 41 41 38 39 40 41 41 41 40 39 35 35 34 33 36 34 32 32 30 28
55 58 61 68 71 69 67 63 58 54 51 50 46 42 40 40 37 38 34 44 39 35 35 37 35 34 36 34 33 34 31 30
43 53 57 61 61 65 67 65 61 54 48 49 46 42 42 43 42 40 37 34 39 42 41 38 38 35 37 34 35 34 33 31
39 46 53 55 57 58 61 62 59 55 52 49 47 48 46 46 44 40 39 39 41 43 45 42 39 38 38 37 36 34 35 32
34 41 47 49 53 54 53 53 54 50 46 50 50 52 52 52 49 43 42 43 46 47 47 43 39 38 38 39 39 36 36 33
32 35 39 41 45 48 49 49 47 46 45 45 47 48 51 48 50 47 48 49 49 45 46 46 45 43 40 39 41 39 37 35
29 31 34 46 47 48 46 52 48 48 47 47 45 44 45 47 51 52 50 53 51 49 52 51 47 46 50 47 43 41 38 37
27 34 30 39 34 39 44 48 47 44 45 47 45 46 47 46 48 50 52 54 53 52 51 48 46 47 48 54 43 42 38 38
29 33 40 39 43 42 41 39 47 48 46 51 51 52 50 49 50 48 50 54 55 49 50 54 52 53 48 46 47 43 40 40
24 6 4 4 4 9 15 18 21 25 32 37 42 45 45 42 39 44 43 47 49 52 54 53 49 50 41 42 43 43 43 41
9 7 5 5 6 8 15 19 22 25 29 33 35 38 41 37 39 39 39 37 37 40 46 51 49 39 39 41 40 43 41 40
9 6 4 4 6 9 12 15 16 21 24 28 32 35 37 37 38 36 37 38 38 37 38 38 39 41 44 48 55 45 43 43
4 5 4 3 2 4 5 6 9 11 14 17 21 27 32 35 37 38 39 39 38 34 36 38 42 44 47 51 48 45 47 48

GFSFLT1_500_spd_117.txt.gz
Wind_Speed
75 72 70 68 73 72 66 63 60 53 43 45 40 37 36 30 28 26 25 25 26 26 26 25 24 24 24 21 19 17 17 16
86 76 74 75 75 75 70 66 65 61 48 46 40 39 40 36 34 31 28 25 27 29 29 26 27 27 25 23 22 21 19 19
93 81 78 79 78 75 72 69 67 63 53 49 46 44 41 39 37 34 28 28 29 32 30 27 30 29 27 25 24 25 23 22
86 87 81 82 81 78 73 71 69 65 58 54 53 46 41 39 37 34 32 32 33 32 32 33 32 29 29 28 27 27 26 26
61 77 81 78 79 79 75 72 71 68 66 57 51 45 39 38 40 38 37 36 36 36 36 34 32 32 32 31 31 30 28 28
41 69 78 74 73 76 76 73 71 69 68 54 49 45 41 42 41 40 40 38 39 37 38 34 35 36 34 32 34 33 30 29
40 62 63 67 72 72 71 70 70 66 68 61 52 50 44 39 39 38 42 44 41 38 39 36 41 37 35 33 34 35 32 32
27 51 55 59 66 69 70 70 68 66 62 57 53 51 49 40 42 37 41 43 42 38 42 43 44 40 38 34 34 37 33 33
21 42 48 55 64 67 69 67 65 64 59 54 53 51 48 41 42 41 42 43 42 42 40 49 49 43 39 36 38 37 34 34
17 34 43 48 59 67 66 66 65 61 59 54 49 51 49 46 44 44 45 44 45 45 44 40 42 44 43 42 38 36 36 35
22 26 39 43 49 59 64 65 63 61 59 55 51 51 49 44 46 47 46 45 46 50 45 43 45 44 43 42 39 37 37 37
16 28 32 39 44 49 54 57 60 60 59 57 55 54 56 51 48 49 49 50 47 53 51 47 46 46 47 43 40 40 41 41
16 20 26 32 40 46 47 49 50 50 52 53 52 49 51 56 55 52 50 51 53 49 50 51 50 51 48 44 46 43 45 50
13 14 17 25 33 40 42 45 47 49 46 46 46 49 51 47 44 41 45 48 46 47 53 53 54 55 52 49 48 47 47 51
22 18 20 25 30 35 39 40 34 41 47 44 44 43 44 44 46 46 45 45 46 47 51 55 58 58 56 55 52 51 48 51
15 8 9 10 31 31 34 38 37 35 39 42 44 47 46 45 49 49 48 48 49 52 53 54 58 60 59 54 51 51 51 50
14 12 10 7 9 6 14 13 16 23 26 28 34 47 50 49 47 46 48 49 48 48 48 48 48 51 52 55 57 56 55 48
14 12 9 7 5 2 3 6 12 14 16 20 25 30 35 38 40 43 46 44 42 43 44 43 42 44 47 48 51 52 49 57
9 5 5 6 6 6 4 4 6 9 12 14 17 20 23 29 35 39 42 43 43 43 42 43 43 43 44 43 44 48 48 54

GFSFLT1_500_spd_120.txt.gz
Wind_Speed
96 86 80 76 76 71 70 70 66 65 63 57 53 43 42 36 36 35 33 30 28 26 26 26 26 25 26 25 22 20 19 18
92 100 86 84 81 77 74 75 70 69 67 62 59 46 42 36 36 39 37 33 29 27 28 28 27 25 27 27 25 23 21 20
63 81 82 91 85 83 80 77 74 72 68 64 56 51 45 42 41 42 40 34 30 30 30 30 26 27 29 29 28 27 23 23
37 52 70 78 85 90 86 81 77 74 70 66 62 56 52 48 41 40 40 37 34 34 33 33 30 29 31 30 30 29 28 27
43 40 54 70 86 92 90 85 80 76 71 68 64 59 52 46 40 40 43 40 37 36 35 35 35 32 29 30 32 32 32 30
29 33 39 55 89 94 92 85 80 76 73 67 64 62 59 50 47 45 45 45 42 41 39 37 36 32 31 33 35 36 36 33
14 16 27 42 79 84 88 83 77 75 71 69 69 60 60 52 49 48 44 47 46 45 43 40 37 36 33 39 39 36 36 36
8 1 11 28 51 68 75 76 74 71 71 70 67 69 48 48 52 50 46 43 37 40 43 43 41 41 41 45 41 37 36 36
4 7 12 30 40 57 60 69 70 71 71 70 68 60 51 51 48 45 43 38 40 35 39 40 45 48 46 46 43 41 39 38
2 4 18 33 40 49 52 62 66 69 71 70 64 60 52 43 46 46 44 43 40 41 43 43 42 45 46 44 45 46 47 41
10 9 18 33 39 49 51 56 56 66 63 55 63 63 52 49 45 48 47 46 43 45 44 46 47 48 50 47 45 44 47 46
14 15 18 25 43 41 34 45 52 59 66 65 58 56 57 45 43 48 45 44 46 47 47 48 46 49 50 49 45 45 42 44
9 16 22 23 31 41 50 38 55 47 44 46 47 44 47 46 45 49 50 48 49 49 47 46 50 52 53 52 50 49 49 47
16 9 19 25 30 34 42 51 43 38 46 47 45 46 47 47 49 51 54 56 55 52 51 53 49 52 51 53 54 52 50 44
12 12 12 21 30 35 38 41 42 41 40 41 46 49 50 51 49 48 50 50 48 48 50 50 51 51 49 52 54 54 54 50
12 6 12 21 24 33 36 41 42 43 43 44 44 45 45 45 43 45 49 51 49 51 51 53 53 52 49 49 52 55 56 55
15 16 12 9 15 23 25 34 35 36 37 38 31 35 42 47 49 49 47 50 51 51 54 55 53 52 52 52 57 58 58 59
15 17 14 13 13 12 13 27 34 34 36 36 31 30 37 46 48 52 55 55 54 54 54 59 58 56 54 54 56 55 55 54
12 13 12 11 10 10 9 9 10 11 12 16 15 19 21 24 29 34 40 48 52 54 53 54 54 54 54 56 54 53 52 51

GFSFLT1_500_spd_123.txt.gz
Wind_Speed
83 87 82 81 81 76 78 72 71 67 63 62 64 62 55 47 47 41 35 34 34 32 30 30 29 29 28 26 24 20 21 22
52 72 82 72 79 86 81 82 77 72 68 67 67 64 61 52 45 45 38 37 35 34 31 31 31 31 31 29 27 24 23 21
37 42 47 64 65 82 89 90 81 76 72 69 70 68 63 56 46 46 42 40 37 36 34 34 32 31 31 30 29 27 25 24
44 44 51 58 55 64 84 89 87 82 78 73 74 72 68 61 54 47 47 42 39 39 38 36 33 33 31 32 31 29 27 27
49 49 53 57 59 56 73 91 95 88 83 78 75 73 68 60 56 48 47 44 39 40 41 39 38 36 35 33 32 30 29 30
43 45 46 49 54 60 61 89 98 92 84 77 73 73 70 65 58 52 49 47 45 43 46 43 41 38 38 36 31 32 33 34
38 37 30 27 32 44 54 85 95 95 87 79 74 73 72 71 63 59 56 50 49 45 47 42 45 45 41 39 36 37 38 37
29 27 25 21 24 27 41 77 90 90 88 82 77 75 70 71 68 64 62 54 51 46 47 47 46 49 46 45 42 42 43 40
28 25 17 22 15 12 24 57 79 86 85 80 77 78 73 69 66 50 78 54 50 51 49 46 44 51 46 47 46 46 46 45
19 10 18 1 4 15 17 37 68 78 79 77 76 74 72 71 69 68 52 62 56 52 49 45 36 38 43 45 46 44 48 49
14 6 5 7 3 18 16 37 62 65 74 76 75 71 72 74 62 72 71 49 48 52 43 41 40 41 40 42 45 45 54 42
10 3 6 9 9 15 23 32 55 57 58 61 71 72 72 77 66 45 47 39 37 38 38 38 41 42 43 42 45 47 49 51
4 5 3 10 18 8 23 26 36 50 48 63 66 70 71 77 50 35 35 33 34 39 41 40 40 42 43 42 44 47 50 49
4 0 4 4 14 31 17 39 43 43 49 51 60 61 63 37 37 38 42 37 39 43 40 42 45 46 46 46 45 46 48 51
8 7 1 7 11 26 19 15 25 41 22 32 61 68 68 65 60 44 39 45 44 43 45 47 49 51 53 53 49 50 50 49
8 6 7 6 13 17 19 18 19 16 20 19 41 48 51 58 45 41 49 43 44 47 48 53 54 55 55 57 55 55 54 51
14 7 11 16 22 20 22 23 26 24 23 23 27 34 41 42 39 39 40 40 45 47 49 52 52 53 53 55 57 60 60 58
8 12 15 10 14 18 20 21 22 28 30 30 32 31 33 38 36 39 43 46 49 50 51 52 53 55 56 56 57 58 58 60
14 14 15 15 15 13 12 19 24 22 27 32 25 28 30 31 32 34 37 43 49 53 54 57 58 58 59 60 61 61 62 63